| time (UTC) | temp F | wind direction | speed knots | gust knots | rain 1hr in | rain 24hr in | rain mn in | humidity % | barometer mb |
| 20260505102123 | 64 | 103 | 0.9 | 3.5 | 0.00 | 0.00 | 0.00 | 56 | 1014.7 |
| 20260505102023 | 64 | 107 | 0.9 | 3.5 | 0.00 | 0.00 | 0.00 | 56 | 1014.7 |
| 20260505101923 | 64 | 108 | 0.0 | 3.5 | 0.00 | 0.00 | 0.00 | 57 | 1014.7 |
| 20260505101823 | 64 | 106 | 0.0 | 3.5 | 0.00 | 0.00 | 0.00 | 57 | 1014.7 |
| 20260505101723 | 64 | 101 | 0.9 | 3.5 | 0.00 | 0.00 | 0.00 | 57 | 1014.6 |
| 20260505101623 | 64 | 97 | 0.9 | 3.5 | 0.00 | 0.00 | 0.00 | 57 | 1014.6 |
| 20260505101523 | 64 | 98 | 1.7 | 3.5 | 0.00 | 0.00 | 0.00 | 57 | 1014.5 |
| 20260505101423 | 64 | 98 | 0.9 | 3.5 | 0.00 | 0.00 | 0.00 | 57 | 1014.5 |
| 20260505101323 | 64 | 99 | 0.9 | 3.5 | 0.00 | 0.00 | 0.00 | 57 | 1014.6 |
| 20260505101222 | 64 | 98 | 1.7 | 3.5 | 0.00 | 0.00 | 0.00 | 57 | 1014.6 |
| 20260505101122 | 64 | 101 | 0.9 | 3.5 | 0.00 | 0.00 | 0.00 | 56 | 1014.7 |
| 20260505101023 | 64 | 100 | 0.9 | 3.5 | 0.00 | 0.00 | 0.00 | 57 | 1014.7 |
| 20260505100923 | 64 | 99 | 0.0 | 3.5 | 0.00 | 0.00 | 0.00 | 57 | 1014.7 |
| 20260505100823 | 64 | 98 | 0.0 | 3.5 | 0.00 | 0.00 | 0.00 | 57 | 1014.9 |
| 20260505100722 | 64 | 95 | 1.7 | 3.5 | 0.00 | 0.00 | 0.00 | 57 | 1014.6 |
| 20260505100622 | 63 | 97 | 1.7 | 3.5 | 0.00 | 0.00 | 0.00 | 57 | 1014.6 |
| 20260505100523 | 64 | 98 | 1.7 | 5.2 | 0.00 | 0.00 | 0.00 | 57 | 1014.7 |
| 20260505100423 | 64 | 98 | 0.9 | 5.2 | 0.00 | 0.00 | 0.00 | 59 | 1014.6 |
| 20260505100323 | 64 | 98 | 1.7 | 5.2 | 0.00 | 0.00 | 0.00 | 58 | 1014.6 |
| 20260505100223 | 63 | 99 | 2.6 | 5.2 | 0.00 | 0.00 | 0.00 | 57 | 1014.8 |
| 20260505100123 | 64 | 97 | 1.7 | 5.2 | 0.00 | 0.00 | 0.00 | 59 | 1014.6 |
| 20260505100023 | 63 | 100 | 1.7 | 5.2 | 0.00 | 0.00 | 0.00 | 57 | 1014.7 |
| 20260505095922 | 64 | 100 | 1.7 | 5.2 | 0.00 | 0.00 | 0.00 | 59 | 1014.6 |
| 20260505095823 | 64 | 100 | 1.7 | 5.2 | 0.00 | 0.00 | 0.00 | 62 | 1014.4 |
| 20260505095723 | 63 | 104 | 3.5 | 5.2 | 0.00 | 0.00 | 0.00 | 61 | 1014.5 |
| 20260505095623 | 62 | 108 | 3.5 | 5.2 | 0.00 | 0.00 | 0.00 | 61 | 1014.4 |
| 20260505095522 | 62 | 108 | 3.5 | 5.2 | 0.00 | 0.00 | 0.00 | 61 | 1014.5 |
| 20260505095423 | 63 | 109 | 1.7 | 3.5 | 0.00 | 0.00 | 0.00 | 63 | 1014.5 |
| 20260505095322 | 62 | 110 | 1.7 | 3.5 | 0.00 | 0.00 | 0.00 | 62 | 1014.5 |
| 20260505095223 | 62 | 110 | 1.7 | 3.5 | 0.00 | 0.00 | 0.00 | 62 | 1014.6 |
| 20260505095122 | 62 | 109 | 0.9 | 3.5 | 0.00 | 0.00 | 0.00 | 61 | 1014.5 |
| 20260505095022 | 62 | 109 | 0.9 | 3.5 | 0.00 | 0.00 | 0.00 | 62 | 1014.6 |
| 20260505094923 | 62 | 109 | 1.7 | 3.5 | 0.00 | 0.00 | 0.00 | 63 | 1014.5 |
| 20260505094823 | 62 | 105 | 1.7 | 3.5 | 0.00 | 0.00 | 0.00 | 63 | 1014.6 |
| 20260505094723 | 62 | 102 | 1.7 | 3.5 | 0.00 | 0.00 | 0.00 | 62 | 1014.5 |
| 20260505094622 | 62 | 95 | 1.7 | 3.5 | 0.00 | 0.00 | 0.00 | 63 | 1014.5 |
| 20260505094523 | 62 | 89 | 1.7 | 3.5 | 0.00 | 0.00 | 0.00 | 63 | 1014.4 |
| 20260505094423 | 62 | 85 | 1.7 | 3.5 | 0.00 | 0.00 | 0.00 | 63 | 1014.4 |
| 20260505094323 | 62 | 82 | 1.7 | 3.5 | 0.00 | 0.00 | 0.00 | 63 | 1014.6 |
| 20260505094223 | 62 | 80 | 1.7 | 5.2 | 0.00 | 0.00 | 0.00 | 63 | 1014.5 |
| 20260505094123 | 61 | 81 | 2.6 | 5.2 | 0.00 | 0.00 | 0.00 | 63 | 1014.7 |
| 20260505094023 | 62 | 80 | 1.7 | 5.2 | 0.00 | 0.00 | 0.00 | 64 | 1014.8 |
| 20260505093923 | 62 | 83 | 1.7 | 5.2 | 0.00 | 0.00 | 0.00 | 63 | 1014.7 |
| 20260505093823 | 61 | 86 | 1.7 | 5.2 | 0.00 | 0.00 | 0.00 | 64 | 1014.8 |
| 20260505093722 | 61 | 88 | 1.7 | 5.2 | 0.00 | 0.00 | 0.00 | 63 | 1014.7 |
| 20260505093623 | 61 | 92 | 2.6 | 5.2 | 0.00 | 0.00 | 0.00 | 64 | 1014.8 |
| 20260505093522 | 62 | 96 | 1.7 | 5.2 | 0.00 | 0.00 | 0.00 | 65 | 1014.8 |
| 20260505093423 | 62 | 98 | 1.7 | 5.2 | 0.00 | 0.00 | 0.00 | 64 | 1014.7 |
| 20260505093323 | 61 | 99 | 2.6 | 5.2 | 0.00 | 0.00 | 0.00 | 63 | 1014.5 |
| 20260505093222 | 62 | 99 | 2.6 | 5.2 | 0.00 | 0.00 | 0.00 | 64 | 1014.5 |
| 20260505093123 | 61 | 98 | 3.5 | 5.2 | 0.00 | 0.00 | 0.00 | 64 | 1014.9 |
| 20260505093023 | 61 | 96 | 2.6 | 3.5 | 0.00 | 0.00 | 0.00 | 64 | 1014.4 |
| 20260505092923 | 61 | 94 | 1.7 | 3.5 | 0.00 | 0.00 | 0.00 | 65 | 1014.7 |
| 20260505092823 | 61 | 93 | 2.6 | 6.1 | 0.00 | 0.00 | 0.00 | 65 | 1014.5 |
| 20260505092723 | 62 | 91 | 1.7 | 6.1 | 0.00 | 0.00 | 0.00 | 66 | 1014.6 |
| 20260505092623 | 61 | 93 | 1.7 | 6.1 | 0.00 | 0.00 | 0.00 | 64 | 1014.7 |
| 20260505092523 | 61 | 93 | 1.7 | 6.1 | 0.00 | 0.00 | 0.00 | 65 | 1014.7 |
| 20260505092423 | 62 | 94 | 1.7 | 6.1 | 0.00 | 0.00 | 0.00 | 66 | 1014.7 |
| 20260505092323 | 62 | 97 | 1.7 | 6.1 | 0.00 | 0.00 | 0.00 | 66 | 1014.6 |
| 20260505092223 | 61 | 100 | 1.7 | 6.1 | 0.00 | 0.00 | 0.00 | 65 | 1014.8 |
| 20260505092123 | 61 | 106 | 3.5 | 6.1 | 0.00 | 0.00 | 0.00 | 65 | 1014.6 |
| 20260505092023 | 61 | 110 | 3.5 | 6.1 | 0.00 | 0.00 | 0.00 | 65 | 1014.5 |
| 20260505091923 | 61 | 116 | 3.5 | 6.1 | 0.00 | 0.00 | 0.00 | 65 | 1014.6 |
| 20260505091822 | 62 | 123 | 2.6 | 3.5 | 0.00 | 0.00 | 0.00 | 65 | 1014.5 |
| 20260505091723 | 62 | 131 | 1.7 | 3.5 | 0.00 | 0.00 | 0.00 | 64 | 1014.7 |
| 20260505091623 | 62 | 133 | 2.6 | 3.5 | 0.00 | 0.00 | 0.00 | 64 | 1014.9 |
| 20260505091523 | 62 | 143 | 1.7 | 3.5 | 0.00 | 0.00 | 0.00 | 65 | 1014.9 |
| 20260505091423 | 62 | 151 | 1.7 | 3.5 | 0.00 | 0.00 | 0.00 | 64 | 1014.8 |
| 20260505091322 | 62 | 147 | 1.7 | 3.5 | 0.00 | 0.00 | 0.00 | 64 | 1014.9 |
| 20260505091223 | 62 | 151 | 1.7 | 3.5 | 0.00 | 0.00 | 0.00 | 64 | 1014.8 |
| 20260505091122 | 62 | 154 | 1.7 | 3.5 | 0.00 | 0.00 | 0.00 | 65 | 1014.9 |
| 20260505091023 | 61 | 153 | 3.5 | 3.5 | 0.00 | 0.00 | 0.00 | 64 | 1014.8 |
| 20260505090923 | 62 | 154 | 1.7 | 5.2 | 0.00 | 0.00 | 0.00 | 64 | 1014.6 |
| 20260505090823 | 61 | 153 | 2.6 | 5.2 | 0.00 | 0.00 | 0.00 | 64 | 1014.8 |
| 20260505090723 | 61 | 148 | 2.6 | 5.2 | 0.00 | 0.00 | 0.00 | 63 | 1014.6 |
| 20260505090622 | 61 | 146 | 1.7 | 5.2 | 0.00 | 0.00 | 0.00 | 63 | 1014.8 |
| 20260505090522 | 61 | 140 | 1.7 | 5.2 | 0.00 | 0.00 | 0.00 | 63 | 1014.8 |
| 20260505090423 | 61 | 131 | 1.7 | 5.2 | 0.00 | 0.00 | 0.00 | 64 | 1014.7 |
| 20260505090323 | 61 | 134 | 1.7 | 5.2 | 0.00 | 0.00 | 0.00 | 64 | 1014.8 |
| 20260505090222 | 61 | 130 | 1.7 | 5.2 | 0.00 | 0.00 | 0.00 | 64 | 1014.8 |
| 20260505090123 | 61 | 127 | 2.6 | 5.2 | 0.00 | 0.00 | 0.00 | 64 | 1014.8 |
| 20260505090023 | 61 | 125 | 3.5 | 5.2 | 0.00 | 0.00 | 0.00 | 64 | 1014.5 |
| 20260505085922 | 62 | 123 | 3.5 | 5.2 | 0.00 | 0.00 | 0.00 | 65 | 1014.7 |
| 20260505085822 | 62 | 124 | 3.5 | 5.2 | 0.00 | 0.00 | 0.00 | 64 | 1014.7 |
| 20260505085723 | 62 | 130 | 1.7 | 3.5 | 0.00 | 0.00 | 0.00 | 64 | 1014.7 |
| 20260505085622 | 62 | 140 | 1.7 | 3.5 | 0.00 | 0.00 | 0.00 | 64 | 1014.6 |
| 20260505085523 | 62 | 145 | 1.7 | 5.2 | 0.00 | 0.00 | 0.00 | 64 | 1014.8 |
| 20260505085423 | 62 | 148 | 1.7 | 5.2 | 0.00 | 0.00 | 0.00 | 64 | 1014.8 |
| 20260505085322 | 62 | 149 | 1.7 | 5.2 | 0.00 | 0.00 | 0.00 | 63 | 1014.8 |
| 20260505085222 | 62 | 150 | 1.7 | 5.2 | 0.00 | 0.00 | 0.00 | 63 | 1014.5 |
| 20260505085122 | 61 | 154 | 1.7 | 5.2 | 0.00 | 0.00 | 0.00 | 62 | 1014.7 |
| 20260505085023 | 62 | 161 | 3.5 | 5.2 | 0.00 | 0.00 | 0.00 | 63 | 1014.8 |
| 20260505084922 | 62 | 167 | 2.6 | 5.2 | 0.00 | 0.00 | 0.00 | 63 | 1014.8 |
| 20260505084823 | 62 | 168 | 2.6 | 5.2 | 0.00 | 0.00 | 0.00 | 64 | 1014.6 |
| 20260505084722 | 62 | 167 | 1.7 | 5.2 | 0.00 | 0.00 | 0.00 | 64 | 1014.7 |
| 20260505084623 | 62 | 162 | 3.5 | 5.2 | 0.00 | 0.00 | 0.00 | 62 | 1014.5 |
| 20260505084523 | 62 | 162 | 3.5 | 5.2 | 0.00 | 0.00 | 0.00 | 61 | 1014.6 |
| 20260505084422 | 62 | 165 | 3.5 | 5.2 | 0.00 | 0.00 | 0.00 | 61 | 1014.6 |
| 20260505084323 | 62 | 163 | 3.5 | 5.2 | 0.00 | 0.00 | 0.00 | 61 | 1014.6 |
| 20260505084224 | 62 | 163 | 1.7 | 3.5 | 0.00 | 0.00 | 0.00 | 61 | 1014.7 |
| 20260505084123 | 62 | 162 | 2.6 | 3.5 | 0.00 | 0.00 | 0.00 | 61 | 1014.6 |
| 20260505084023 | 62 | 150 | 3.5 | 3.5 | 0.00 | 0.00 | 0.00 | 60 | 1014.8 |
| 20260505083922 | 62 | 146 | 3.5 | 5.2 | 0.00 | 0.00 | 0.00 | 61 | 1014.6 |
| 20260505083823 | 63 | 139 | 0.9 | 5.2 | 0.00 | 0.00 | 0.00 | 64 | 1014.7 |
| 20260505083723 | 63 | 134 | 0.9 | 5.2 | 0.00 | 0.00 | 0.00 | 65 | 1014.6 |
| 20260505083622 | 63 | 134 | 0.0 | 5.2 | 0.00 | 0.00 | 0.00 | 65 | 1014.6 |
| 20260505083523 | 62 | 139 | 0.9 | 5.2 | 0.00 | 0.00 | 0.00 | 65 | 1014.6 |
| 20260505083423 | 63 | 138 | 1.7 | 5.2 | 0.00 | 0.00 | 0.00 | 66 | 1014.7 |
| 20260505083322 | 63 | 143 | 1.7 | 5.2 | 0.00 | 0.00 | 0.00 | 65 | 1014.6 |
| 20260505083222 | 63 | 143 | 0.9 | 5.2 | 0.00 | 0.00 | 0.00 | 65 | 1014.5 |
| 20260505083123 | 63 | 148 | 1.7 | 5.2 | 0.00 | 0.00 | 0.00 | 64 | 1014.7 |
| 20260505083023 | 63 | 167 | 3.5 | 5.2 | 0.00 | 0.00 | 0.00 | 64 | 1014.3 |
| 20260505082923 | 64 | 195 | 2.6 | 5.2 | 0.00 | 0.00 | 0.00 | 63 | 1014.4 |
| 20260505082823 | 64 | 216 | 1.7 | 5.2 | 0.00 | 0.00 | 0.00 | 63 | 1014.5 |
| 20260505082723 | 64 | 226 | 1.7 | 5.2 | 0.00 | 0.00 | 0.00 | 62 | 1014.6 |
| 20260505082623 | 64 | 234 | 0.9 | 5.2 | 0.00 | 0.00 | 0.00 | 59 | 1014.6 |
| 20260505082523 | 64 | 237 | 0.9 | 5.2 | 0.00 | 0.00 | 0.00 | 60 | 1014.7 |
| 20260505082423 | 63 | 244 | 1.7 | 5.2 | 0.00 | 0.00 | 0.00 | 60 | 1014.6 |
| 20260505082323 | 63 | 245 | 0.0 | 5.2 | 0.00 | 0.00 | 0.00 | 60 | 1014.6 |
| 20260505082222 | 63 | 242 | 1.7 | 5.2 | 0.00 | 0.00 | 0.00 | 61 | 1014.6 |
| 20260505082122 | 62 | 242 | 2.6 | 5.2 | 0.00 | 0.00 | 0.00 | 61 | 1014.9 |
| 20260505082022 | 62 | 243 | 2.6 | 5.2 | 0.00 | 0.00 | 0.00 | 61 | 1014.6 |
| 20260505081923 | 62 | 245 | 3.5 | 5.2 | 0.00 | 0.00 | 0.00 | 61 | 1014.7 |
| 20260505081823 | 62 | 243 | 1.7 | 5.2 | 0.00 | 0.00 | 0.00 | 63 | 1014.7 |
| 20260505081723 | 62 | 243 | 1.7 | 5.2 | 0.00 | 0.00 | 0.00 | 62 | 1014.9 |
| 20260505081623 | 62 | 240 | 1.7 | 5.2 | 0.00 | 0.00 | 0.00 | 63 | 1014.8 |
| 20260505081522 | 62 | 239 | 1.7 | 5.2 | 0.00 | 0.00 | 0.00 | 63 | 1014.8 |
| 20260505081423 | 62 | 237 | 1.7 | 5.2 | 0.00 | 0.00 | 0.00 | 65 | 1014.5 |
| 20260505081322 | 62 | 238 | 1.7 | 5.2 | 0.00 | 0.00 | 0.00 | 65 | 1014.7 |
| 20260505081223 | 62 | 242 | 1.7 | 5.2 | 0.00 | 0.00 | 0.00 | 65 | 1014.8 |
| 20260505081122 | 62 | 246 | 1.7 | 5.2 | 0.00 | 0.00 | 0.00 | 64 | 1014.6 |
| 20260505081023 | 62 | 246 | 1.7 | 5.2 | 0.00 | 0.00 | 0.00 | 64 | 1014.5 |
| 20260505080922 | 62 | 248 | 1.7 | 5.2 | 0.00 | 0.00 | 0.00 | 63 | 1014.7 |
| 20260505080823 | 62 | 257 | 2.6 | 5.2 | 0.00 | 0.00 | 0.00 | 64 | 1014.8 |
| 20260505080724 | 62 | 266 | 2.6 | 5.2 | 0.00 | 0.00 | 0.00 | 62 | 1014.6 |
| 20260505080623 | 62 | 279 | 0.9 | 3.5 | 0.00 | 0.00 | 0.00 | 61 | 1014.6 |
| 20260505080523 | 61 | 281 | 0.9 | 3.5 | 0.00 | 0.00 | 0.00 | 61 | 1014.6 |
| 20260505080422 | 61 | 285 | 1.7 | 3.5 | 0.00 | 0.00 | 0.00 | 62 | 1014.8 |
| 20260505080322 | 62 | 286 | 0.9 | 3.5 | 0.00 | 0.00 | 0.00 | 64 | 1014.7 |
| 20260505080222 | 61 | 283 | 0.0 | 3.5 | 0.00 | 0.00 | 0.00 | 63 | 1014.7 |
| 20260505080123 | 61 | 281 | 1.7 | 3.5 | 0.00 | 0.00 | 0.00 | 63 | 1014.7 |
| 20260505080023 | 60 | 276 | 2.6 | 3.5 | 0.00 | 0.00 | 0.00 | 62 | 1014.7 |
| 20260505075923 | 60 | 264 | 2.6 | 3.5 | 0.00 | 0.00 | 0.00 | 62 | 1014.7 |
| 20260505075822 | 61 | 250 | 1.7 | 3.5 | 0.00 | 0.00 | 0.00 | 63 | 1014.6 |
| 20260505075723 | 60 | 228 | 1.7 | 3.5 | 0.00 | 0.00 | 0.00 | 61 | 1014.6 |
| 20260505075623 | 60 | 193 | 1.7 | 1.7 | 0.00 | 0.00 | 0.00 | 62 | 1014.5 |
| 20260505075523 | 60 | 170 | 0.9 | 1.7 | 0.00 | 0.00 | 0.00 | 63 | 1014.7 |
| 20260505075422 | 60 | 154 | 0.9 | 1.7 | 0.00 | 0.00 | 0.00 | 63 | 1014.6 |
| 20260505075323 | 60 | 145 | 0.9 | 1.7 | 0.00 | 0.00 | 0.00 | 63 | 1014.6 |
| 20260505075223 | 61 | 136 | 1.7 | 1.7 | 0.00 | 0.00 | 0.00 | 65 | 1014.5 |
| 20260505075122 | 61 | 127 | 0.9 | 1.7 | 0.00 | 0.00 | 0.00 | 64 | 1014.6 |
| 20260505075022 | 60 | 120 | 1.7 | 1.7 | 0.00 | 0.00 | 0.00 | 63 | 1014.6 |
| 20260505074922 | 61 | 108 | 0.9 | 1.7 | 0.00 | 0.00 | 0.00 | 64 | 1014.6 |
| 20260505074823 | 61 | 99 | 0.9 | 1.7 | 0.00 | 0.00 | 0.00 | 64 | 1014.9 |
| 20260505074722 | 61 | 88 | 0.9 | 1.7 | 0.00 | 0.00 | 0.00 | 64 | 1014.5 |
| 20260505074622 | 61 | 72 | 0.9 | 1.7 | 0.00 | 0.00 | 0.00 | 64 | 1014.6 |
| 20260505074523 | 61 | 62 | 0.9 | 1.7 | 0.00 | 0.00 | 0.00 | 65 | 1014.5 |
| 20260505074423 | 61 | 59 | 0.0 | 1.7 | 0.00 | 0.00 | 0.00 | 64 | 1014.6 |
| 20260505074323 | 61 | 63 | 0.0 | 1.7 | 0.00 | 0.00 | 0.00 | 64 | 1014.6 |
| 20260505074223 | 61 | 66 | 0.0 | 1.7 | 0.00 | 0.00 | 0.00 | 64 | 1014.4 |
| 20260505074123 | 60 | 70 | 0.0 | 1.7 | 0.00 | 0.00 | 0.00 | 64 | 1014.6 |
| 20260505074022 | 60 | 74 | 0.0 | 1.7 | 0.00 | 0.00 | 0.00 | 64 | 1014.7 |
| 20260505073922 | 60 | 80 | 0.0 | 1.7 | 0.00 | 0.00 | 0.00 | 64 | 1014.6 |
| 20260505073822 | 61 | 82 | 0.0 | 1.7 | 0.00 | 0.00 | 0.00 | 65 | 1014.5 |
| 20260505073723 | 61 | 83 | 0.9 | 1.7 | 0.00 | 0.00 | 0.00 | 65 | 1014.6 |
| 20260505073622 | 61 | 89 | 0.9 | 1.7 | 0.00 | 0.00 | 0.00 | 65 | 1014.6 |
| 20260505073522 | 61 | 89 | 0.9 | 1.7 | 0.00 | 0.00 | 0.00 | 64 | 1014.6 |
| 20260505073423 | 61 | 89 | 0.9 | 1.7 | 0.00 | 0.00 | 0.00 | 64 | 1014.6 |
| 20260505073322 | 61 | 85 | 0.9 | 1.7 | 0.00 | 0.00 | 0.00 | 64 | 1014.5 |
| 20260505073222 | 61 | 81 | 0.0 | 1.7 | 0.00 | 0.00 | 0.00 | 65 | 1014.8 |
| 20260505073123 | 61 | 74 | 0.0 | 3.5 | 0.00 | 0.00 | 0.00 | 64 | 1014.6 |
| 20260505073023 | 60 | 66 | 0.9 | 3.5 | 0.00 | 0.00 | 0.00 | 64 | 1014.7 |
| 20260505072923 | 60 | 63 | 0.9 | 3.5 | 0.00 | 0.00 | 0.00 | 65 | 1014.9 |
| 20260505072822 | 61 | 63 | 0.0 | 3.5 | 0.00 | 0.00 | 0.00 | 67 | 1014.6 |
| 20260505072722 | 61 | 60 | 0.0 | 3.5 | 0.00 | 0.00 | 0.00 | 67 | 1014.7 |
| 20260505072623 | 61 | 58 | 0.0 | 3.5 | 0.00 | 0.00 | 0.00 | 66 | 1014.5 |
| 20260505072523 | 61 | 56 | 0.0 | 3.5 | 0.00 | 0.00 | 0.00 | 67 | 1014.7 |
| 20260505072422 | 61 | 52 | 0.9 | 3.5 | 0.00 | 0.00 | 0.00 | 66 | 1014.6 |
| 20260505072322 | 61 | 50 | 0.0 | 3.5 | 0.00 | 0.00 | 0.00 | 66 | 1014.7 |
| 20260505072222 | 61 | 47 | 1.7 | 3.5 | 0.00 | 0.00 | 0.00 | 64 | 1014.5 |
| 20260505072122 | 61 | 44 | 1.7 | 3.5 | 0.00 | 0.00 | 0.00 | 63 | 1014.6 |
| 20260505072022 | 61 | 44 | 1.7 | 3.5 | 0.00 | 0.00 | 0.00 | 63 | 1014.6 |
| 20260505071923 | 60 | 41 | 1.7 | 3.5 | 0.00 | 0.00 | 0.00 | 62 | 1014.4 |
| 20260505071822 | 61 | 38 | 1.7 | 3.5 | 0.00 | 0.00 | 0.00 | 64 | 1014.2 |
| 20260505071723 | 61 | 42 | 1.7 | 3.5 | 0.00 | 0.00 | 0.00 | 64 | 1014.5 |
| 20260505071623 | 61 | 43 | 1.7 | 3.5 | 0.00 | 0.00 | 0.00 | 63 | 1014.4 |
| 20260505071523 | 61 | 43 | 1.7 | 3.5 | 0.00 | 0.00 | 0.00 | 63 | 1014.7 |
| 20260505071422 | 61 | 48 | 1.7 | 1.7 | 0.00 | 0.00 | 0.00 | 64 | 1014.5 |
| 20260505071322 | 61 | 48 | 0.9 | 1.7 | 0.00 | 0.00 | 0.00 | 64 | 1014.5 |
| 20260505071222 | 61 | 54 | 0.9 | 1.7 | 0.00 | 0.00 | 0.00 | 64 | 1014.4 |
| 20260505071122 | 62 | 56 | 0.0 | 1.7 | 0.00 | 0.00 | 0.00 | 63 | 1014.4 |
| 20260505071023 | 61 | 56 | 0.0 | 1.7 | 0.00 | 0.00 | 0.00 | 62 | 1014.4 |
| 20260505070923 | 61 | 60 | 0.9 | 1.7 | 0.00 | 0.00 | 0.00 | 62 | 1014.4 |
| 20260505070822 | 61 | 63 | 0.9 | 1.7 | 0.00 | 0.00 | 0.00 | 62 | 1014.2 |
| 20260505070722 | 61 | 65 | 0.0 | 1.7 | 0.00 | 0.00 | 0.00 | 62 | 1014.5 |
| 20260505070622 | 61 | 68 | 0.9 | 1.7 | 0.00 | 0.00 | 0.00 | 61 | 1014.4 |
| 20260505070522 | 61 | 78 | 0.9 | 1.7 | 0.00 | 0.00 | 0.00 | 61 | 1014.4 |
| 20260505070422 | 61 | 86 | 0.9 | 1.7 | 0.00 | 0.00 | 0.00 | 60 | 1014.5 |
| 20260505070323 | 61 | 92 | 0.9 | 1.7 | 0.00 | 0.00 | 0.00 | 60 | 1014.4 |
| 20260505070222 | 61 | 94 | 0.9 | 1.7 | 0.00 | 0.00 | 0.00 | 60 | 1014.5 |
| 20260505070122 | 61 | 96 | 0.9 | 3.5 | 0.00 | 0.00 | 0.00 | 60 | 1014.5 |
| 20260505070022 | 61 | 98 | 0.9 | 3.5 | 0.00 | 0.00 | 0.00 | 60 | 1014.6 |
| 20260505065922 | 61 | 98 | 0.9 | 3.5 | 0.00 | 0.00 | 0.00 | 59 | 1014.4 |
| 20260505065822 | 61 | 98 | 0.0 | 3.5 | 0.00 | 0.00 | 0.00 | 61 | 1014.5 |
| 20260505065722 | 61 | 97 | 0.0 | 3.5 | 0.00 | 0.00 | 0.00 | 61 | 1014.6 |
| 20260505065623 | 61 | 97 | 0.0 | 3.5 | 0.00 | 0.00 | 0.00 | 62 | 1014.7 |
| 20260505065522 | 61 | 97 | 0.0 | 3.5 | 0.00 | 0.00 | 0.00 | 61 | 1014.5 |
| 20260505065423 | 61 | 97 | 0.0 | 3.5 | 0.00 | 0.00 | 0.00 | 61 | 1014.4 |
| 20260505065323 | 61 | 96 | 0.9 | 3.5 | 0.00 | 0.00 | 0.00 | 61 | 1014.6 |
| 20260505065222 | 61 | 98 | 0.9 | 3.5 | 0.00 | 0.00 | 0.00 | 61 | 1014.4 |
| 20260505065122 | 61 | 97 | 1.7 | 3.5 | 0.00 | 0.00 | 0.00 | 62 | 1014.3 |
| 20260505065022 | 61 | 97 | 0.9 | 3.5 | 0.00 | 0.00 | 0.00 | 63 | 1014.4 |
| 20260505064922 | 61 | 97 | 0.0 | 3.5 | 0.00 | 0.00 | 0.00 | 63 | 1014.4 |
| 20260505064822 | 61 | 94 | 0.9 | 3.5 | 0.00 | 0.00 | 0.00 | 63 | 1014.3 |
| 20260505064722 | 61 | 95 | 1.7 | 3.5 | 0.00 | 0.00 | 0.00 | 62 | 1014.4 |
| 20260505064623 | 61 | 94 | 1.7 | 3.5 | 0.00 | 0.00 | 0.00 | 62 | 1014.3 |
| 20260505064523 | 61 | 92 | 0.9 | 3.5 | 0.00 | 0.00 | 0.00 | 63 | 1014.4 |
| 20260505064422 | 61 | 94 | 1.7 | 3.5 | 0.00 | 0.00 | 0.00 | 62 | 1014.2 |
| 20260505064322 | 61 | 98 | 1.7 | 1.7 | 0.00 | 0.00 | 0.00 | 62 | 1014.3 |
| 20260505064222 | 61 | 98 | 1.7 | 1.7 | 0.00 | 0.00 | 0.00 | 62 | 1014.3 |
| 20260505064123 | 61 | 101 | 0.9 | 1.7 | 0.00 | 0.00 | 0.00 | 62 | 1014.0 |
| 20260505064022 | 61 | 105 | 1.7 | 1.7 | 0.00 | 0.00 | 0.00 | 62 | 1014.2 |
| 20260505063923 | 61 | 107 | 1.7 | 1.7 | 0.00 | 0.00 | 0.00 | 62 | 1014.2 |
| 20260505063822 | 61 | 113 | 1.7 | 1.7 | 0.00 | 0.00 | 0.00 | 61 | 1014.3 |
| 20260505063722 | 62 | 111 | 0.0 | 1.7 | 0.00 | 0.00 | 0.00 | 64 | 1014.2 |
| 20260505063622 | 62 | 109 | 0.0 | 1.7 | 0.00 | 0.00 | 0.00 | 64 | 1014.0 |
| 20260505063522 | 62 | 108 | 0.9 | 1.7 | 0.00 | 0.00 | 0.00 | 64 | 1014.2 |
| 20260505063422 | 61 | 107 | 1.7 | 1.7 | 0.00 | 0.00 | 0.00 | 63 | 1014.0 |
| 20260505063322 | 61 | 102 | 0.9 | 1.7 | 0.00 | 0.00 | 0.00 | 63 | 1014.1 |
| 20260505063222 | 62 | 99 | 0.9 | 1.7 | 0.00 | 0.00 | 0.00 | 63 | 1014.1 |
| 20260505063122 | 62 | 96 | 0.9 | 1.7 | 0.00 | 0.00 | 0.00 | 64 | 1014.2 |
| 20260505063022 | 62 | 90 | 0.0 | 1.7 | 0.00 | 0.00 | 0.00 | 64 | 1014.2 |
| 20260505062922 | 62 | 86 | 0.9 | 1.7 | 0.00 | 0.00 | 0.00 | 63 | 1014.2 |
| 20260505062822 | 62 | 77 | 0.9 | 1.7 | 0.00 | 0.00 | 0.00 | 62 | 1014.1 |
| 20260505062722 | 61 | 70 | 0.9 | 1.7 | 0.00 | 0.00 | 0.00 | 60 | 1014.1 |
| 20260505062622 | 62 | 62 | 0.0 | 1.7 | 0.00 | 0.00 | 0.00 | 64 | 1014.2 |
| 20260505062522 | 62 | 56 | 0.0 | 1.7 | 0.00 | 0.00 | 0.00 | 63 | 1014.2 |
| 20260505062422 | 62 | 52 | 0.0 | 1.7 | 0.00 | 0.00 | 0.00 | 63 | 1014.4 |
| 20260505062322 | 62 | 42 | 0.9 | 1.7 | 0.00 | 0.00 | 0.00 | 63 | 1014.2 |
| 20260505062222 | 63 | 33 | 0.0 | 1.7 | 0.00 | 0.00 | 0.00 | 60 | 1014.0 |
| 20260505062122 | 62 | 26 | 0.9 | 1.7 | 0.00 | 0.00 | 0.00 | 59 | 1014.2 |
| 20260505062022 | 63 | 20 | 0.9 | 1.7 | 0.00 | 0.00 | 0.00 | 59 | 1014.1 |
| 20260505061922 | 62 | 14 | 0.9 | 1.7 | 0.00 | 0.00 | 0.00 | 58 | 1014.0 |
| 20260505061823 | 62 | 10 | 0.9 | 1.7 | 0.00 | 0.00 | 0.00 | 57 | 1014.2 |
| 20260505061722 | 62 | 6 | 0.9 | 1.7 | 0.00 | 0.00 | 0.00 | 58 | 1014.1 |
| 20260505061622 | 62 | 359 | 0.0 | 1.7 | 0.00 | 0.00 | 0.00 | 58 | 1014.1 |
| 20260505061522 | 62 | 353 | 0.9 | 1.7 | 0.00 | 0.00 | 0.00 | 58 | 1013.9 |
| 20260505061422 | 62 | 343 | 1.7 | 1.7 | 0.00 | 0.00 | 0.00 | 57 | 1014.1 |
| 20260505061322 | 61 | 336 | 0.9 | 1.7 | 0.00 | 0.00 | 0.00 | 58 | 1014.0 |
| 20260505061222 | 61 | 333 | 0.9 | 1.7 | 0.00 | 0.00 | 0.00 | 58 | 1014.0 |
| 20260505061122 | 61 | 328 | 0.9 | 1.7 | 0.00 | 0.00 | 0.00 | 59 | 1014.3 |
| 20260505061022 | 61 | 317 | 1.7 | 1.7 | 0.00 | 0.00 | 0.00 | 61 | 1014.1 |
| 20260505060923 | 61 | 303 | 0.9 | 1.7 | 0.00 | 0.00 | 0.00 | 62 | 1014.1 |
| 20260505060822 | 61 | 291 | 0.9 | 1.7 | 0.00 | 0.00 | 0.00 | 63 | 1014.0 |
| 20260505060723 | 61 | 281 | 0.9 | 1.7 | 0.00 | 0.00 | 0.00 | 64 | 1014.1 |
| 20260505060623 | 61 | 274 | 1.7 | 1.7 | 0.00 | 0.00 | 0.00 | 63 | 1014.0 |
| 20260505060522 | 61 | 276 | 1.7 | 1.7 | 0.00 | 0.00 | 0.00 | 62 | 1013.9 |
| 20260505060422 | 60 | 284 | 0.9 | 1.7 | 0.00 | 0.00 | 0.00 | 62 | 1014.0 |
| 20260505060322 | 60 | 297 | 0.9 | 1.7 | 0.00 | 0.00 | 0.00 | 63 | 1013.8 |
| 20260505060222 | 60 | 313 | 0.0 | 1.7 | 0.00 | 0.00 | 0.00 | 64 | 1014.1 |
| 20260505060122 | 60 | 326 | 0.0 | 1.7 | 0.00 | 0.00 | 0.00 | 64 | 1013.9 |
| 20260505060023 | 60 | 347 | 0.0 | 1.7 | 0.00 | 0.00 | 0.00 | 64 | 1013.9 |
| 20260505055922 | 60 | 7 | 0.0 | 1.7 | 0.00 | 0.00 | 0.00 | 64 | 1013.8 |
| 20260505055822 | 60 | 14 | 0.0 | 1.7 | 0.00 | 0.00 | 0.00 | 65 | 1013.8 |
| 20260505055723 | 60 | 7 | 0.0 | 1.7 | 0.00 | 0.00 | 0.00 | 65 | 1014.0 |
| 20260505055622 | 60 | 2 | 0.0 | 1.7 | 0.00 | 0.00 | 0.00 | 65 | 1013.8 |
| 20260505055522 | 60 | 357 | 0.9 | 1.7 | 0.00 | 0.00 | 0.00 | 65 | 1013.9 |
| 20260505055422 | 60 | 344 | 0.9 | 3.5 | 0.00 | 0.00 | 0.00 | 64 | 1013.7 |
| 20260505055322 | 60 | 331 | 1.7 | 3.5 | 0.00 | 0.00 | 0.00 | 64 | 1013.8 |
| 20260505055222 | 60 | 320 | 0.9 | 3.5 | 0.00 | 0.00 | 0.00 | 64 | 1013.9 |
| 20260505055122 | 60 | 311 | 0.9 | 3.5 | 0.00 | 0.00 | 0.00 | 64 | 1013.8 |
| 20260505055022 | 60 | 303 | 1.7 | 3.5 | 0.00 | 0.00 | 0.00 | 64 | 1013.9 |
| 20260505054922 | 60 | 296 | 1.7 | 3.5 | 0.00 | 0.00 | 0.00 | 64 | 1013.8 |
| 20260505054822 | 59 | 292 | 0.9 | 3.5 | 0.00 | 0.00 | 0.00 | 64 | 1013.9 |
| 20260505054722 | 59 | 292 | 0.9 | 3.5 | 0.00 | 0.00 | 0.00 | 65 | 1013.8 |
| 20260505054622 | 59 | 292 | 0.9 | 3.5 | 0.00 | 0.00 | 0.00 | 66 | 1013.7 |
| 20260505054522 | 59 | 292 | 1.7 | 3.5 | 0.00 | 0.00 | 0.00 | 66 | 1013.7 |
| 20260505054422 | 59 | 292 | 1.7 | 3.5 | 0.00 | 0.00 | 0.00 | 66 | 1014.0 |
| 20260505054322 | 58 | 292 | 2.6 | 3.5 | 0.00 | 0.00 | 0.00 | 67 | 1014.1 |
| 20260505054222 | 59 | 289 | 1.7 | 3.5 | 0.00 | 0.00 | 0.00 | 67 | 1013.8 |
| 20260505054122 | 59 | 284 | 1.7 | 3.5 | 0.00 | 0.00 | 0.00 | 67 | 1013.8 |
| 20260505054022 | 59 | 282 | 1.7 | 3.5 | 0.00 | 0.00 | 0.00 | 66 | 1013.9 |
| 20260505053922 | 59 | 276 | 1.7 | 3.5 | 0.00 | 0.00 | 0.00 | 65 | 1014.0 |
| 20260505053822 | 59 | 260 | 0.0 | 1.7 | 0.00 | 0.00 | 0.00 | 64 | 1013.9 |
| 20260505053722 | 59 | 247 | 0.0 | 1.7 | 0.00 | 0.00 | 0.00 | 65 | 1013.8 |
| 20260505053622 | 59 | 247 | 0.0 | 1.7 | 0.00 | 0.00 | 0.00 | 65 | 1013.7 |
| 20260505053522 | 60 | 247 | 0.0 | 1.7 | 0.00 | 0.00 | 0.00 | 65 | 1013.7 |
| 20260505053422 | 60 | 247 | 0.0 | 1.7 | 0.00 | 0.00 | 0.00 | 66 | 1013.9 |
| 20260505053322 | 60 | 260 | 0.0 | 1.7 | 0.00 | 0.00 | 0.00 | 65 | 1013.9 |
| 20260505053222 | 61 | 276 | 0.0 | 1.7 | 0.00 | 0.00 | 0.00 | 64 | 1013.9 |
| 20260505053122 | 60 | 289 | 0.9 | 1.7 | 0.00 | 0.00 | 0.00 | 63 | 1013.8 |
| 20260505053023 | 60 | 292 | 0.0 | 1.7 | 0.00 | 0.00 | 0.00 | 61 | 1013.8 |
| 20260505052922 | 60 | 292 | 0.0 | 1.7 | 0.00 | 0.00 | 0.00 | 61 | 1013.8 |
| 20260505052822 | 60 | 292 | 0.0 | 1.7 | 0.00 | 0.00 | 0.00 | 61 | 1013.8 |
| 20260505052722 | 60 | 292 | 0.0 | 1.7 | 0.00 | 0.00 | 0.00 | 61 | 1013.6 |
| 20260505052622 | 60 | 292 | 0.0 | 1.7 | 0.00 | 0.00 | 0.00 | 61 | 1013.7 |
| 20260505052522 | 60 | 292 | 0.0 | 1.7 | 0.00 | 0.00 | 0.00 | 61 | 1013.7 |
| 20260505052422 | 60 | 292 | 0.0 | 1.7 | 0.00 | 0.00 | 0.00 | 62 | 1013.8 |
| 20260505052322 | 60 | 292 | 0.0 | 1.7 | 0.00 | 0.00 | 0.00 | 62 | 1013.8 |
| 20260505052222 | 60 | 292 | 0.9 | 1.7 | 0.00 | 0.00 | 0.00 | 63 | 1013.8 |
| 20260505052122 | 60 | 292 | 0.9 | 1.7 | 0.00 | 0.00 | 0.00 | 63 | 1013.9 |
| 20260505052023 | 60 | 292 | 0.0 | 1.7 | 0.00 | 0.00 | 0.00 | 63 | 1013.7 |
| 20260505051922 | 60 | 293 | 0.0 | 1.7 | 0.00 | 0.00 | 0.00 | 63 | 1013.7 |
| 20260505051822 | 59 | 297 | 0.0 | 1.7 | 0.00 | 0.00 | 0.00 | 63 | 1013.6 |
| 20260505051722 | 60 | 301 | 0.0 | 3.5 | 0.00 | 0.00 | 0.00 | 63 | 1013.7 |
| 20260505051622 | 59 | 301 | 0.0 | 3.5 | 0.00 | 0.00 | 0.00 | 63 | 1013.7 |
| 20260505051523 | 59 | 301 | 0.9 | 3.5 | 0.00 | 0.00 | 0.00 | 63 | 1013.8 |
| 20260505051422 | 59 | 301 | 0.9 | 3.5 | 0.00 | 0.00 | 0.00 | 64 | 1013.8 |
| 20260505051322 | 59 | 301 | 0.9 | 3.5 | 0.00 | 0.00 | 0.00 | 64 | 1013.6 |
| 20260505051222 | 59 | 301 | 0.9 | 3.5 | 0.00 | 0.00 | 0.00 | 64 | 1013.8 |
| 20260505051122 | 59 | 302 | 0.0 | 3.5 | 0.00 | 0.00 | 0.00 | 64 | 1013.7 |
| 20260505051022 | 59 | 304 | 0.9 | 3.5 | 0.00 | 0.00 | 0.00 | 64 | 1013.7 |
| 20260505050922 | 59 | 308 | 1.7 | 3.5 | 0.00 | 0.00 | 0.00 | 65 | 1013.7 |
| 20260505050822 | 59 | 312 | 1.7 | 3.5 | 0.00 | 0.00 | 0.00 | 65 | 1013.6 |
| 20260505050722 | 59 | 318 | 1.7 | 3.5 | 0.00 | 0.00 | 0.00 | 65 | 1013.5 |
| 20260505050622 | 59 | 333 | 1.7 | 1.7 | 0.00 | 0.00 | 0.00 | 64 | 1013.6 |
| 20260505050522 | 59 | 350 | 0.0 | 1.7 | 0.00 | 0.00 | 0.00 | 64 | 1013.6 |
| 20260505050422 | 60 | 5 | 0.0 | 1.7 | 0.00 | 0.00 | 0.00 | 64 | 1013.6 |
| 20260505050322 | 60 | 20 | 0.0 | 1.7 | 0.00 | 0.00 | 0.00 | 63 | 1013.6 |
| 20260505050222 | 60 | 25 | 0.0 | 1.7 | 0.00 | 0.00 | 0.00 | 62 | 1013.6 |
| 20260505050122 | 60 | 27 | 0.0 | 1.7 | 0.00 | 0.00 | 0.00 | 62 | 1013.6 |
| 20260505041722 | 58 | 279 | 1.7 | 1.7 | 0.00 | 0.00 | 0.00 | 68 | 1013.6 |
| 20260505041622 | 58 | 279 | 0.0 | 1.7 | 0.00 | 0.00 | 0.00 | 68 | 1013.6 |
| 20260505041522 | 58 | 281 | 0.0 | 1.7 | 0.00 | 0.00 | 0.00 | 68 | 1013.6 |
| 20260505041422 | 58 | 284 | 0.0 | 1.7 | 0.00 | 0.00 | 0.00 | 68 | 1013.6 |
| 20260505041322 | 58 | 289 | 0.9 | 1.7 | 0.00 | 0.00 | 0.00 | 68 | 1013.4 |
| 20260505041222 | 58 | 294 | 0.0 | 1.7 | 0.00 | 0.00 | 0.00 | 67 | 1013.5 |
| 20260505041122 | 59 | 296 | 0.0 | 1.7 | 0.00 | 0.00 | 0.00 | 67 | 1013.6 |
| 20260505041022 | 59 | 298 | 0.0 | 1.7 | 0.00 | 0.00 | 0.00 | 67 | 1013.4 |
| 20260505040923 | 59 | 299 | 0.9 | 1.7 | 0.00 | 0.00 | 0.00 | 67 | 1013.5 |
| 20260505040822 | 59 | 299 | 0.9 | 1.7 | 0.00 | 0.00 | 0.00 | 67 | 1013.4 |
| 20260505040722 | 59 | 298 | 1.7 | 3.5 | 0.00 | 0.00 | 0.00 | 67 | 1013.6 |
| 20260505040622 | 58 | 298 | 1.7 | 3.5 | 0.00 | 0.00 | 0.00 | 67 | 1013.6 |
| 20260505040522 | 58 | 298 | 0.9 | 3.5 | 0.00 | 0.00 | 0.00 | 68 | 1013.6 |
| 20260505040422 | 58 | 297 | 1.7 | 3.5 | 0.00 | 0.00 | 0.00 | 68 | 1013.5 |
| 20260505040322 | 58 | 295 | 1.7 | 3.5 | 0.00 | 0.00 | 0.00 | 68 | 1013.5 |
| 20260505040222 | 58 | 292 | 1.7 | 3.5 | 0.00 | 0.00 | 0.00 | 68 | 1013.5 |
| 20260505040122 | 58 | 288 | 1.7 | 3.5 | 0.00 | 0.00 | 0.00 | 68 | 1013.3 |
| 20260505040022 | 58 | 284 | 1.7 | 3.5 | 0.00 | 0.00 | 0.00 | 68 | 1013.4 |
| 20260505035922 | 58 | 282 | 1.7 | 3.5 | 0.00 | 0.00 | 0.00 | 68 | 1013.5 |
| 20260505035822 | 58 | 279 | 1.7 | 3.5 | 0.00 | 0.00 | 0.00 | 67 | 1013.6 |
| 20260505035722 | 58 | 271 | 1.7 | 1.7 | 0.00 | 0.00 | 0.00 | 68 | 1013.8 |
| 20260505035622 | 58 | 257 | 0.9 | 1.7 | 0.00 | 0.00 | 0.00 | 68 | 1013.6 |
| 20260505035522 | 58 | 247 | 0.0 | 1.7 | 0.00 | 0.00 | 0.00 | 68 | 1013.7 |
| 20260505035422 | 59 | 247 | 0.0 | 1.7 | 0.00 | 0.00 | 0.00 | 67 | 1013.7 |
| 20260505035322 | 59 | 247 | 0.0 | 1.7 | 0.00 | 0.00 | 0.00 | 67 | 1013.7 |
| 20260505035222 | 59 | 247 | 0.0 | 1.7 | 0.00 | 0.00 | 0.00 | 67 | 1013.6 |
| 20260505035122 | 59 | 270 | 0.9 | 1.7 | 0.00 | 0.00 | 0.00 | 67 | 1013.8 |
| 20260505035022 | 59 | 292 | 0.0 | 1.7 | 0.00 | 0.00 | 0.00 | 67 | 1013.7 |
| 20260505034922 | 59 | 292 | 0.0 | 1.7 | 0.00 | 0.00 | 0.00 | 67 | 1013.6 |
| 20260505034822 | 58 | 292 | 0.0 | 1.7 | 0.00 | 0.00 | 0.00 | 67 | 1013.6 |
| 20260505034723 | 58 | 292 | 0.0 | 1.7 | 0.00 | 0.00 | 0.00 | 68 | 1013.7 |
| 20260505034622 | 58 | 292 | 0.0 | 1.7 | 0.00 | 0.00 | 0.00 | 68 | 1013.7 |
| 20260505034522 | 58 | 292 | 0.0 | 1.7 | 0.00 | 0.00 | 0.00 | 68 | 1013.6 |
| 20260505034422 | 58 | 292 | 0.0 | 1.7 | 0.00 | 0.00 | 0.00 | 68 | 1013.5 |
| 20260505034322 | 58 | 290 | 0.0 | 1.7 | 0.00 | 0.00 | 0.00 | 69 | 1013.6 |
| 20260505034222 | 58 | 289 | 0.0 | 1.7 | 0.00 | 0.00 | 0.00 | 69 | 1013.4 |
| 20260505034122 | 58 | 289 | 1.7 | 1.7 | 0.00 | 0.00 | 0.00 | 69 | 1013.5 |
| 20260505034022 | 58 | 288 | 1.7 | 1.7 | 0.00 | 0.00 | 0.00 | 69 | 1013.8 |
| 20260505033922 | 58 | 288 | 1.7 | 1.7 | 0.00 | 0.00 | 0.00 | 69 | 1013.6 |
| 20260505033822 | 58 | 288 | 1.7 | 1.7 | 0.00 | 0.00 | 0.00 | 69 | 1013.6 |
| 20260505033722 | 58 | 288 | 1.7 | 1.7 | 0.00 | 0.00 | 0.00 | 69 | 1013.7 |
| 20260505033622 | 58 | 286 | 0.9 | 1.7 | 0.00 | 0.00 | 0.00 | 69 | 1013.7 |
| 20260505033522 | 58 | 285 | 0.0 | 1.7 | 0.00 | 0.00 | 0.00 | 69 | 1013.8 |
| 20260505033422 | 58 | 285 | 0.0 | 1.7 | 0.00 | 0.00 | 0.00 | 69 | 1013.6 |
| 20260505033322 | 58 | 289 | 0.0 | 1.7 | 0.00 | 0.00 | 0.00 | 69 | 1013.6 |
| 20260505033222 | 58 | 292 | 0.0 | 1.7 | 0.00 | 0.00 | 0.00 | 69 | 1013.8 |
| 20260505033122 | 58 | 292 | 0.0 | 1.7 | 0.00 | 0.00 | 0.00 | 69 | 1013.8 |
| 20260505033022 | 58 | 292 | 0.0 | 1.7 | 0.00 | 0.00 | 0.00 | 69 | 1013.9 |
| 20260505032922 | 58 | 292 | 0.0 | 1.7 | 0.00 | 0.00 | 0.00 | 69 | 1013.6 |
| 20260505032822 | 58 | 292 | 0.9 | 1.7 | 0.00 | 0.00 | 0.00 | 69 | 1013.7 |
| 20260505032722 | 58 | 292 | 0.0 | 1.7 | 0.00 | 0.00 | 0.00 | 69 | 1013.7 |
| 20260505032622 | 58 | 292 | 0.0 | 1.7 | 0.00 | 0.00 | 0.00 | 69 | 1013.9 |
| 20260505032522 | 58 | 292 | 0.0 | 1.7 | 0.00 | 0.00 | 0.00 | 69 | 1013.9 |
| 20260505032422 | 58 | 292 | 0.0 | 1.7 | 0.00 | 0.00 | 0.00 | 69 | 1013.9 |
| 20260505032322 | 58 | 292 | 0.0 | 1.7 | 0.00 | 0.00 | 0.00 | 69 | 1013.8 |
| 20260505032222 | 58 | 292 | 0.0 | 1.7 | 0.00 | 0.00 | 0.00 | 69 | 1013.6 |
| 20260505032122 | 58 | 310 | 0.0 | 1.7 | 0.00 | 0.00 | 0.00 | 69 | 1013.7 |
| 20260505032022 | 58 | 11 | 0.9 | 1.7 | 0.00 | 0.00 | 0.00 | 69 | 1013.8 |
| 20260505031922 | 58 | 56 | 0.9 | 1.7 | 0.00 | 0.00 | 0.00 | 69 | 1013.9 |
| 20260505031822 | 58 | 67 | 0.9 | 1.7 | 0.00 | 0.00 | 0.00 | 69 | 1013.9 |
| 20260505031722 | 58 | 75 | 0.0 | 1.7 | 0.00 | 0.00 | 0.00 | 68 | 1013.7 |
| 20260505031622 | 58 | 76 | 0.0 | 1.7 | 0.00 | 0.00 | 0.00 | 68 | 1013.9 |
| 20260505031522 | 58 | 77 | 0.0 | 1.7 | 0.00 | 0.00 | 0.00 | 68 | 1013.8 |
| 20260505031422 | 58 | 71 | 0.0 | 1.7 | 0.00 | 0.00 | 0.00 | 67 | 1014.0 |
| 20260505031322 | 59 | 65 | 0.0 | 1.7 | 0.00 | 0.00 | 0.00 | 67 | 1013.9 |
| 20260505031222 | 59 | 62 | 0.0 | 1.7 | 0.00 | 0.00 | 0.00 | 67 | 1013.9 |
| 20260505031122 | 59 | 61 | 0.0 | 1.7 | 0.00 | 0.00 | 0.00 | 67 | 1013.9 |
| 20260505031022 | 59 | 58 | 1.7 | 1.7 | 0.00 | 0.00 | 0.00 | 67 | 1013.8 |
| 20260505030922 | 59 | 56 | 1.7 | 1.7 | 0.00 | 0.00 | 0.00 | 67 | 1013.6 |
| 20260505030822 | 59 | 55 | 1.7 | 1.7 | 0.00 | 0.00 | 0.00 | 67 | 1013.9 |
| 20260505030722 | 59 | 52 | 0.9 | 1.7 | 0.00 | 0.00 | 0.00 | 67 | 1013.7 |
| 20260505030622 | 59 | 49 | 0.9 | 1.7 | 0.00 | 0.00 | 0.00 | 68 | 1013.9 |
| 20260505030522 | 59 | 48 | 0.9 | 1.7 | 0.00 | 0.00 | 0.00 | 68 | 1014.0 |
| 20260505030422 | 59 | 49 | 0.0 | 1.7 | 0.00 | 0.00 | 0.00 | 68 | 1013.9 |
| 20260505030322 | 59 | 49 | 0.0 | 3.5 | 0.00 | 0.00 | 0.00 | 68 | 1013.8 |
| 20260505030222 | 59 | 53 | 0.9 | 3.5 | 0.00 | 0.00 | 0.00 | 68 | 1013.9 |
| 20260505030122 | 58 | 55 | 1.7 | 3.5 | 0.00 | 0.00 | 0.00 | 68 | 1013.8 |
| 20260505030022 | 58 | 58 | 1.7 | 3.5 | 0.00 | 0.00 | 0.00 | 68 | 1013.8 |
| 20260505025922 | 58 | 59 | 1.7 | 3.5 | 0.00 | 0.00 | 0.00 | 69 | 1013.8 |
| 20260505025822 | 58 | 61 | 1.7 | 3.5 | 0.00 | 0.00 | 0.00 | 69 | 1013.9 |
| 20260505025722 | 58 | 63 | 1.7 | 3.5 | 0.00 | 0.00 | 0.00 | 69 | 1013.9 |
| 20260505025622 | 58 | 64 | 1.7 | 3.5 | 0.00 | 0.00 | 0.00 | 69 | 1013.9 |
| 20260505025522 | 58 | 64 | 1.7 | 3.5 | 0.00 | 0.00 | 0.00 | 69 | 1013.8 |
| 20260505025422 | 58 | 66 | 1.7 | 3.5 | 0.00 | 0.00 | 0.00 | 69 | 1013.9 |
| 20260505025322 | 58 | 66 | 2.6 | 3.5 | 0.00 | 0.00 | 0.00 | 69 | 1014.0 |
| 20260505025222 | 58 | 63 | 2.6 | 3.5 | 0.00 | 0.00 | 0.00 | 69 | 1014.1 |
| 20260505025122 | 58 | 60 | 1.7 | 3.5 | 0.00 | 0.00 | 0.00 | 69 | 1014.0 |
| 20260505025022 | 58 | 52 | 1.7 | 1.7 | 0.00 | 0.00 | 0.00 | 68 | 1014.2 |
| 20260505024922 | 58 | 37 | 1.7 | 3.5 | 0.00 | 0.00 | 0.00 | 68 | 1014.0 |
| 20260505024822 | 58 | 17 | 1.7 | 3.5 | 0.00 | 0.00 | 0.00 | 68 | 1014.2 |
| 20260505024722 | 58 | 14 | 1.7 | 3.5 | 0.00 | 0.00 | 0.00 | 68 | 1014.1 |
| 20260505024622 | 58 | 9 | 1.7 | 3.5 | 0.00 | 0.00 | 0.00 | 68 | 1013.9 |
| 20260505024522 | 58 | 357 | 1.7 | 3.5 | 0.00 | 0.00 | 0.00 | 68 | 1014.2 |
| 20260505024422 | 58 | 345 | 1.7 | 3.5 | 0.00 | 0.00 | 0.00 | 68 | 1014.2 |
| 20260505024322 | 58 | 328 | 1.7 | 3.5 | 0.00 | 0.00 | 0.00 | 68 | 1014.1 |
| 20260505024222 | 58 | 317 | 1.7 | 3.5 | 0.00 | 0.00 | 0.00 | 69 | 1014.1 |
| 20260505024122 | 58 | 304 | 1.7 | 3.5 | 0.00 | 0.00 | 0.00 | 69 | 1014.3 |
| 20260505024022 | 58 | 290 | 1.7 | 3.5 | 0.00 | 0.00 | 0.00 | 69 | 1014.3 |
| 20260505023922 | 58 | 273 | 1.7 | 3.5 | 0.00 | 0.00 | 0.00 | 69 | 1014.3 |
| 20260505023822 | 58 | 109 | 0.0 | 1.7 | 0.00 | 0.00 | 0.00 | 68 | 1014.5 |
| 20260505023722 | 58 | 95 | 0.0 | 1.7 | 0.00 | 0.00 | 0.00 | 67 | 1014.4 |
| 20260505023622 | 58 | 90 | 0.0 | 1.7 | 0.00 | 0.00 | 0.00 | 67 | 1014.2 |
| 20260505023522 | 58 | 90 | 0.0 | 1.7 | 0.00 | 0.00 | 0.00 | 67 | 1014.2 |
| 20260505023422 | 59 | 90 | 0.0 | 3.5 | 0.00 | 0.00 | 0.00 | 67 | 1014.3 |
| 20260505023322 | 59 | 90 | 0.0 | 3.5 | 0.00 | 0.00 | 0.00 | 67 | 1014.3 |
| 20260505023222 | 58 | 90 | 0.0 | 3.5 | 0.00 | 0.00 | 0.00 | 67 | 1014.3 |
| 20260505023122 | 58 | 90 | 0.0 | 3.5 | 0.00 | 0.00 | 0.00 | 68 | 1014.2 |
| 20260505023022 | 58 | 90 | 0.0 | 3.5 | 0.00 | 0.00 | 0.00 | 68 | 1014.3 |
| 20260505022922 | 58 | 90 | 0.0 | 3.5 | 0.00 | 0.00 | 0.00 | 68 | 1014.3 |
| 20260505022822 | 58 | 90 | 0.0 | 3.5 | 0.00 | 0.00 | 0.00 | 69 | 1014.5 |
| 20260505022722 | 58 | 90 | 0.9 | 3.5 | 0.00 | 0.00 | 0.00 | 69 | 1014.4 |
| 20260505022622 | 58 | 90 | 1.7 | 3.5 | 0.00 | 0.00 | 0.00 | 69 | 1014.3 |
| 20260505022522 | 58 | 90 | 1.7 | 3.5 | 0.00 | 0.00 | 0.00 | 69 | 1014.2 |
| 20260505022422 | 58 | 90 | 1.7 | 3.5 | 0.00 | 0.00 | 0.00 | 69 | 1014.2 |
| 20260505022322 | 58 | 90 | 1.7 | 3.5 | 0.00 | 0.00 | 0.00 | 69 | 1014.4 |
| 20260505022222 | 58 | 90 | 2.6 | 3.5 | 0.00 | 0.00 | 0.00 | 69 | 1014.3 |
| 20260505022122 | 58 | 90 | 1.7 | 3.5 | 0.00 | 0.00 | 0.00 | 69 | 1014.2 |
| 20260505022022 | 58 | 90 | 1.7 | 3.5 | 0.00 | 0.00 | 0.00 | 69 | 1014.4 |
| 20260505021923 | 58 | 90 | 1.7 | 3.5 | 0.00 | 0.00 | 0.00 | 69 | 1014.4 |
| 20260505021822 | 59 | 92 | 1.7 | 1.7 | 0.00 | 0.00 | 0.00 | 69 | 1014.3 |
| 20260505021722 | 59 | 94 | 1.7 | 1.7 | 0.00 | 0.00 | 0.00 | 68 | 1014.4 |
| 20260505021622 | 59 | 94 | 1.7 | 1.7 | 0.00 | 0.00 | 0.00 | 68 | 1014.3 |
| 20260505021522 | 59 | 94 | 1.7 | 1.7 | 0.00 | 0.00 | 0.00 | 68 | 1014.4 |
| 20260505021422 | 59 | 94 | 1.7 | 1.7 | 0.00 | 0.00 | 0.00 | 68 | 1014.1 |
| 20260505021322 | 60 | 93 | 1.7 | 1.7 | 0.00 | 0.00 | 0.00 | 68 | 1014.3 |
| 20260505021222 | 60 | 91 | 1.7 | 1.7 | 0.00 | 0.00 | 0.00 | 67 | 1014.3 |
| 20260505021122 | 60 | 88 | 1.7 | 1.7 | 0.00 | 0.00 | 0.00 | 67 | 1014.3 |
| 20260505021022 | 60 | 82 | 1.7 | 1.7 | 0.00 | 0.00 | 0.00 | 67 | 1014.3 |
| 20260505020922 | 60 | 68 | 1.7 | 1.7 | 0.00 | 0.00 | 0.00 | 67 | 1014.4 |
| 20260505020822 | 60 | 39 | 1.7 | 1.7 | 0.00 | 0.00 | 0.00 | 66 | 1014.2 |
| 20260505020722 | 60 | 15 | 1.7 | 1.7 | 0.00 | 0.00 | 0.00 | 66 | 1014.1 |
| 20260505020622 | 60 | 353 | 1.7 | 1.7 | 0.00 | 0.00 | 0.00 | 66 | 1014.4 |
| 20260505020522 | 60 | 341 | 0.9 | 1.7 | 0.00 | 0.00 | 0.00 | 66 | 1014.4 |
| 20260505020422 | 59 | 332 | 0.9 | 1.7 | 0.00 | 0.00 | 0.00 | 67 | 1014.5 |
| 20260505020322 | 59 | 325 | 0.0 | 1.7 | 0.00 | 0.00 | 0.00 | 67 | 1014.4 |
| 20260505020222 | 60 | 321 | 0.0 | 1.7 | 0.00 | 0.00 | 0.00 | 68 | 1014.6 |
| 20260505020122 | 60 | 319 | 0.9 | 1.7 | 0.00 | 0.00 | 0.00 | 68 | 1014.6 |
| 20260505020022 | 60 | 318 | 1.7 | 1.7 | 0.00 | 0.00 | 0.00 | 68 | 1014.4 |
| 20260505015922 | 60 | 316 | 1.7 | 1.7 | 0.00 | 0.00 | 0.00 | 69 | 1014.6 |
| 20260505015822 | 59 | 312 | 1.7 | 1.7 | 0.00 | 0.00 | 0.00 | 69 | 1014.5 |
| 20260505015722 | 59 | 308 | 1.7 | 1.7 | 0.00 | 0.00 | 0.00 | 69 | 1014.4 |
| 20260505015622 | 59 | 306 | 1.7 | 1.7 | 0.00 | 0.00 | 0.00 | 69 | 1014.6 |
| 20260505015522 | 59 | 303 | 1.7 | 1.7 | 0.00 | 0.00 | 0.00 | 69 | 1014.4 |
| 20260505015422 | 59 | 297 | 0.9 | 1.7 | 0.00 | 0.00 | 0.00 | 69 | 1014.5 |
| 20260505015322 | 59 | 300 | 0.0 | 1.7 | 0.00 | 0.00 | 0.00 | 70 | 1014.5 |
| 20260505015222 | 59 | 307 | 0.0 | 1.7 | 0.00 | 0.00 | 0.00 | 70 | 1014.6 |
| 20260505015122 | 59 | 315 | 0.0 | 1.7 | 0.00 | 0.00 | 0.00 | 70 | 1014.5 |
| 20260505015022 | 59 | 0 | 0.0 | 0.0 | 0.00 | 0.00 | 0.00 | 70 | 1014.5 |
| 20260505014922 | 59 | 0 | 0.0 | 0.0 | 0.00 | 0.00 | 0.00 | 70 | 1014.5 |
| 20260505014822 | 59 | 0 | 0.0 | 0.0 | 0.00 | 0.00 | 0.00 | 70 | 1014.6 |
| 20260505014722 | 59 | 22 | 0.0 | 1.7 | 0.00 | 0.00 | 0.00 | 70 | 1014.4 |
| 20260505014622 | 59 | 22 | 0.0 | 1.7 | 0.00 | 0.00 | 0.00 | 70 | 1014.4 |
| 20260505014522 | 58 | 22 | 0.0 | 1.7 | 0.00 | 0.00 | 0.00 | 70 | 1014.7 |
| 20260505014422 | 59 | 22 | 0.0 | 1.7 | 0.00 | 0.00 | 0.00 | 70 | 1014.7 |
| 20260505014322 | 59 | 22 | 0.0 | 1.7 | 0.00 | 0.00 | 0.00 | 70 | 1014.7 |
| 20260505014222 | 59 | 22 | 0.0 | 1.7 | 0.00 | 0.00 | 0.00 | 70 | 1014.5 |
| 20260505014122 | 59 | 22 | 0.0 | 1.7 | 0.00 | 0.00 | 0.00 | 70 | 1014.4 |
| 20260505014022 | 59 | 22 | 0.0 | 1.7 | 0.00 | 0.00 | 0.00 | 70 | 1014.7 |
| 20260505013922 | 59 | 22 | 0.0 | 1.7 | 0.00 | 0.00 | 0.00 | 70 | 1014.7 |
| 20260505013822 | 59 | 22 | 0.0 | 1.7 | 0.00 | 0.00 | 0.00 | 70 | 1014.5 |
| 20260505013723 | 59 | 0 | 0.0 | 0.0 | 0.00 | 0.00 | 0.00 | 69 | 1014.5 |
| 20260505013622 | 59 | 67 | 0.0 | 1.7 | 0.00 | 0.00 | 0.00 | 69 | 1014.5 |
| 20260505013522 | 59 | 67 | 0.0 | 1.7 | 0.00 | 0.00 | 0.00 | 69 | 1014.7 |
| 20260505013422 | 59 | 67 | 0.0 | 1.7 | 0.00 | 0.00 | 0.00 | 69 | 1014.8 |
| 20260505013322 | 59 | 67 | 0.0 | 1.7 | 0.00 | 0.00 | 0.00 | 69 | 1014.6 |
| 20260505013222 | 59 | 67 | 0.0 | 1.7 | 0.00 | 0.00 | 0.00 | 69 | 1014.7 |
| 20260505013122 | 59 | 67 | 0.0 | 1.7 | 0.00 | 0.00 | 0.00 | 69 | 1014.6 |
| 20260505013024 | 59 | 67 | 0.0 | 1.7 | 0.00 | 0.00 | 0.00 | 69 | 1014.6 |
| 20260505012922 | 60 | 67 | 0.0 | 1.7 | 0.00 | 0.00 | 0.00 | 69 | 1014.7 |
| 20260505012822 | 59 | 67 | 0.0 | 1.7 | 0.00 | 0.00 | 0.00 | 69 | 1014.4 |
| 20260505012722 | 60 | 67 | 0.0 | 1.7 | 0.00 | 0.00 | 0.00 | 69 | 1014.6 |
| 20260505012622 | 60 | 67 | 1.7 | 1.7 | 0.00 | 0.00 | 0.00 | 68 | 1014.5 |
| 20260505012522 | 60 | 67 | 1.7 | 1.7 | 0.00 | 0.00 | 0.00 | 68 | 1014.5 |
| 20260505012422 | 60 | 67 | 1.7 | 1.7 | 0.00 | 0.00 | 0.00 | 68 | 1014.5 |
| 20260505012322 | 60 | 67 | 1.7 | 1.7 | 0.00 | 0.00 | 0.00 | 68 | 1014.7 |
| 20260505012222 | 60 | 67 | 1.7 | 1.7 | 0.00 | 0.00 | 0.00 | 68 | 1014.6 |
| 20260505012122 | 60 | 67 | 1.7 | 1.7 | 0.00 | 0.00 | 0.00 | 68 | 1014.8 |
| 20260505012022 | 60 | 65 | 1.7 | 1.7 | 0.00 | 0.00 | 0.00 | 68 | 1014.6 |
| 20260505011922 | 60 | 64 | 1.7 | 1.7 | 0.00 | 0.00 | 0.00 | 68 | 1014.5 |
| 20260505011822 | 60 | 61 | 0.9 | 1.7 | 0.00 | 0.00 | 0.00 | 67 | 1014.7 |
| 20260505011722 | 60 | 59 | 0.9 | 1.7 | 0.00 | 0.00 | 0.00 | 67 | 1014.5 |
| 20260505011622 | 60 | 57 | 0.9 | 1.7 | 0.00 | 0.00 | 0.00 | 67 | 1014.5 |
| 20260505011522 | 60 | 55 | 1.7 | 1.7 | 0.00 | 0.00 | 0.00 | 67 | 1014.7 |
| 20260505011422 | 60 | 53 | 1.7 | 1.7 | 0.00 | 0.00 | 0.00 | 67 | 1014.6 |
| 20260505011322 | 60 | 51 | 1.7 | 1.7 | 0.00 | 0.00 | 0.00 | 67 | 1014.7 |
| 20260505011222 | 60 | 51 | 1.7 | 1.7 | 0.00 | 0.00 | 0.00 | 66 | 1014.6 |
| 20260505011122 | 60 | 51 | 1.7 | 1.7 | 0.00 | 0.00 | 0.00 | 66 | 1014.6 |
| 20260505011022 | 61 | 53 | 1.7 | 1.7 | 0.00 | 0.00 | 0.00 | 66 | 1014.7 |
| 20260505010922 | 61 | 52 | 1.7 | 1.7 | 0.00 | 0.00 | 0.00 | 66 | 1014.7 |
| 20260505010822 | 61 | 52 | 1.7 | 1.7 | 0.00 | 0.00 | 0.00 | 66 | 1014.7 |
| 20260505010722 | 61 | 52 | 1.7 | 1.7 | 0.00 | 0.00 | 0.00 | 66 | 1014.6 |
| 20260505010622 | 61 | 52 | 1.7 | 1.7 | 0.00 | 0.00 | 0.00 | 66 | 1014.6 |
| 20260505010522 | 61 | 52 | 1.7 | 1.7 | 0.00 | 0.00 | 0.00 | 66 | 1014.7 |
| 20260505010422 | 61 | 52 | 1.7 | 1.7 | 0.00 | 0.00 | 0.00 | 66 | 1014.8 |
| 20260505010322 | 61 | 53 | 1.7 | 1.7 | 0.00 | 0.00 | 0.00 | 66 | 1014.7 |
| 20260505010222 | 61 | 53 | 1.7 | 1.7 | 0.00 | 0.00 | 0.00 | 66 | 1014.8 |
| 20260505010122 | 61 | 50 | 1.7 | 1.7 | 0.00 | 0.00 | 0.00 | 66 | 1014.6 |
| 20260505010022 | 61 | 49 | 1.7 | 1.7 | 0.00 | 0.00 | 0.00 | 66 | 1014.9 |
| 20260505005922 | 61 | 48 | 1.7 | 1.7 | 0.00 | 0.00 | 0.00 | 65 | 1014.6 |
| 20260505005822 | 61 | 49 | 1.7 | 1.7 | 0.00 | 0.00 | 0.00 | 65 | 1014.9 |
| 20260505005722 | 61 | 51 | 0.9 | 1.7 | 0.00 | 0.00 | 0.00 | 65 | 1015.0 |
| 20260505005622 | 61 | 51 | 1.7 | 1.7 | 0.00 | 0.00 | 0.00 | 64 | 1014.9 |
| 20260505005522 | 61 | 50 | 0.9 | 1.7 | 0.00 | 0.00 | 0.00 | 64 | 1014.7 |
| 20260505005422 | 61 | 52 | 0.9 | 1.7 | 0.00 | 0.00 | 0.00 | 64 | 1015.1 |
| 20260505005322 | 61 | 51 | 0.9 | 1.7 | 0.00 | 0.00 | 0.00 | 63 | 1014.9 |
| 20260505005222 | 61 | 49 | 0.0 | 1.7 | 0.00 | 0.00 | 0.00 | 63 | 1015.0 |
| 20260505005122 | 61 | 48 | 0.9 | 1.7 | 0.00 | 0.00 | 0.00 | 63 | 1015.0 |
| 20260505005022 | 62 | 42 | 0.0 | 1.7 | 0.00 | 0.00 | 0.00 | 63 | 1015.0 |
| 20260505004922 | 61 | 34 | 0.9 | 1.7 | 0.00 | 0.00 | 0.00 | 63 | 1014.9 |
| 20260505004822 | 61 | 24 | 0.9 | 1.7 | 0.00 | 0.00 | 0.00 | 63 | 1015.0 |
| 20260505004722 | 61 | 12 | 0.9 | 1.7 | 0.00 | 0.00 | 0.00 | 64 | 1014.8 |
| 20260505004622 | 61 | 358 | 0.9 | 1.7 | 0.00 | 0.00 | 0.00 | 63 | 1014.8 |
| 20260505004522 | 61 | 348 | 0.9 | 1.7 | 0.00 | 0.00 | 0.00 | 63 | 1014.9 |
| 20260505004422 | 61 | 341 | 1.7 | 1.7 | 0.00 | 0.00 | 0.00 | 63 | 1015.0 |
| 20260505004322 | 61 | 332 | 1.7 | 1.7 | 0.00 | 0.00 | 0.00 | 63 | 1014.8 |
| 20260505004222 | 62 | 322 | 0.9 | 1.7 | 0.00 | 0.00 | 0.00 | 63 | 1014.9 |
| 20260505004122 | 62 | 315 | 0.9 | 1.7 | 0.00 | 0.00 | 0.00 | 63 | 1014.9 |
| 20260505004022 | 62 | 315 | 0.9 | 1.7 | 0.00 | 0.00 | 0.00 | 63 | 1014.9 |
| 20260505003922 | 62 | 315 | 0.9 | 1.7 | 0.00 | 0.00 | 0.00 | 63 | 1015.0 |
| 20260505003822 | 62 | 315 | 0.9 | 1.7 | 0.00 | 0.00 | 0.00 | 63 | 1015.1 |
| 20260505003722 | 61 | 315 | 0.0 | 1.7 | 0.00 | 0.00 | 0.00 | 63 | 1015.2 |
| 20260505003622 | 62 | 315 | 0.9 | 1.7 | 0.00 | 0.00 | 0.00 | 63 | 1015.0 |
| 20260505003522 | 62 | 315 | 0.0 | 1.7 | 0.00 | 0.00 | 0.00 | 62 | 1015.0 |
| 20260505003422 | 62 | 315 | 0.0 | 1.7 | 0.00 | 0.00 | 0.00 | 62 | 1014.9 |
| 20260505003322 | 62 | 315 | 0.0 | 1.7 | 0.00 | 0.00 | 0.00 | 62 | 1014.9 |
| 20260505003222 | 62 | 313 | 0.0 | 1.7 | 0.00 | 0.00 | 0.00 | 62 | 1015.1 |
| 20260505003122 | 62 | 311 | 0.0 | 1.7 | 0.00 | 0.00 | 0.00 | 62 | 1014.9 |
| 20260505003022 | 62 | 309 | 0.9 | 1.7 | 0.00 | 0.00 | 0.00 | 62 | 1014.9 |
| 20260505002921 | 62 | 307 | 0.9 | 1.7 | 0.00 | 0.00 | 0.00 | 62 | 1015.1 |
| 20260505002822 | 62 | 305 | 0.0 | 1.7 | 0.00 | 0.00 | 0.00 | 62 | 1015.0 |
| 20260505002721 | 62 | 303 | 0.0 | 1.7 | 0.00 | 0.00 | 0.00 | 62 | 1014.8 |
| 20260505002622 | 62 | 301 | 1.7 | 1.7 | 0.00 | 0.00 | 0.00 | 62 | 1014.9 |
| 20260505002522 | 62 | 299 | 1.7 | 1.7 | 0.00 | 0.00 | 0.00 | 62 | 1014.9 |
| 20260505002422 | 62 | 296 | 1.7 | 1.7 | 0.00 | 0.00 | 0.00 | 62 | 1015.1 |
| 20260505002322 | 62 | 293 | 1.7 | 1.7 | 0.00 | 0.00 | 0.00 | 62 | 1014.9 |
| 20260505002222 | 62 | 292 | 0.9 | 1.7 | 0.00 | 0.00 | 0.00 | 63 | 1015.2 |
| 20260505002122 | 62 | 292 | 0.9 | 1.7 | 0.00 | 0.00 | 0.00 | 63 | 1014.9 |
| 20260505002022 | 62 | 292 | 0.9 | 1.7 | 0.00 | 0.00 | 0.00 | 63 | 1015.2 |
| 20260505001922 | 61 | 292 | 1.7 | 1.7 | 0.00 | 0.00 | 0.00 | 63 | 1015.3 |
| 20260505001822 | 61 | 292 | 0.9 | 1.7 | 0.00 | 0.00 | 0.00 | 63 | 1015.1 |
| 20260505001722 | 61 | 293 | 1.7 | 1.7 | 0.00 | 0.00 | 0.00 | 63 | 1015.2 |
| 20260505001622 | 61 | 295 | 1.7 | 1.7 | 0.00 | 0.00 | 0.00 | 64 | 1015.2 |
| 20260505001522 | 61 | 297 | 1.7 | 1.7 | 0.00 | 0.00 | 0.00 | 64 | 1015.0 |
| 20260505001421 | 61 | 299 | 1.7 | 1.7 | 0.00 | 0.00 | 0.00 | 64 | 1015.3 |
| 20260505001322 | 61 | 301 | 1.7 | 1.7 | 0.00 | 0.00 | 0.00 | 64 | 1015.1 |
| 20260505001222 | 61 | 304 | 1.7 | 1.7 | 0.00 | 0.00 | 0.00 | 64 | 1015.3 |
| 20260505001122 | 61 | 307 | 1.7 | 1.7 | 0.00 | 0.00 | 0.00 | 64 | 1015.1 |
| 20260505001022 | 61 | 309 | 1.7 | 1.7 | 0.00 | 0.00 | 0.00 | 64 | 1015.1 |
| 20260505000922 | 61 | 312 | 0.9 | 1.7 | 0.00 | 0.00 | 0.00 | 64 | 1015.0 |
| 20260505000822 | 60 | 315 | 0.0 | 1.7 | 0.00 | 0.00 | 0.00 | 66 | 1015.2 |
| 20260505000722 | 60 | 315 | 0.0 | 1.7 | 0.00 | 0.00 | 0.00 | 66 | 1015.1 |
| 20260505000622 | 60 | 315 | 0.0 | 1.7 | 0.00 | 0.00 | 0.00 | 66 | 1015.2 |
| 20260505000522 | 60 | 315 | 0.0 | 1.7 | 0.00 | 0.00 | 0.00 | 66 | 1015.3 |
| 20260505000422 | 60 | 315 | 0.0 | 1.7 | 0.00 | 0.00 | 0.00 | 66 | 1015.2 |
| 20260505000322 | 60 | 315 | 0.0 | 1.7 | 0.00 | 0.00 | 0.00 | 66 | 1015.4 |
| 20260505000221 | 60 | 315 | 0.0 | 1.7 | 0.00 | 0.00 | 0.00 | 66 | 1015.3 |
| 20260505000122 | 60 | 315 | 0.0 | 1.7 | 0.00 | 0.00 | 0.00 | 66 | 1015.2 |
| 20260505000022 | 60 | 315 | 0.0 | 1.7 | 0.00 | 0.00 | 0.00 | 66 | 1015.1 |
| 20260504235922 | 60 | 315 | 0.0 | 1.7 | 0.00 | 0.00 | 0.00 | 66 | 1015.4 |
| 20260504235822 | 61 | 315 | 0.0 | 1.7 | 0.00 | 0.00 | 0.00 | 66 | 1015.4 |
| 20260504235722 | 61 | 315 | 0.0 | 1.7 | 0.00 | 0.00 | 0.00 | 66 | 1015.2 |
| 20260504235622 | 61 | 315 | 0.0 | 1.7 | 0.00 | 0.00 | 0.00 | 66 | 1015.2 |
| 20260504235522 | 61 | 315 | 0.0 | 1.7 | 0.00 | 0.00 | 0.00 | 65 | 1015.2 |
| 20260504235422 | 61 | 315 | 0.9 | 1.7 | 0.00 | 0.00 | 0.00 | 65 | 1015.2 |
| 20260504235322 | 61 | 315 | 0.9 | 1.7 | 0.00 | 0.00 | 0.00 | 65 | 1015.2 |
| 20260504235221 | 61 | 315 | 0.9 | 1.7 | 0.00 | 0.00 | 0.00 | 65 | 1015.4 |
| 20260504235122 | 61 | 315 | 0.9 | 1.7 | 0.00 | 0.00 | 0.00 | 65 | 1015.2 |
| 20260504235022 | 61 | 315 | 0.0 | 1.7 | 0.00 | 0.00 | 0.00 | 65 | 1015.4 |
| 20260504234921 | 61 | 315 | 0.0 | 1.7 | 0.00 | 0.00 | 0.00 | 65 | 1015.5 |
| 20260504234822 | 61 | 315 | 0.0 | 1.7 | 0.00 | 0.00 | 0.00 | 65 | 1015.4 |
| 20260504234721 | 61 | 315 | 0.0 | 1.7 | 0.00 | 0.00 | 0.00 | 65 | 1015.6 |
| 20260504234621 | 61 | 315 | 0.0 | 1.7 | 0.00 | 0.00 | 0.00 | 64 | 1015.5 |
| 20260504234521 | 61 | 315 | 0.0 | 1.7 | 0.00 | 0.00 | 0.00 | 64 | 1015.3 |
| 20260504234422 | 61 | 311 | 0.0 | 1.7 | 0.00 | 0.00 | 0.00 | 64 | 1015.7 |
| 20260504234322 | 61 | 309 | 0.0 | 1.7 | 0.00 | 0.00 | 0.00 | 65 | 1015.6 |
| 20260504234222 | 61 | 307 | 0.0 | 1.7 | 0.00 | 0.00 | 0.00 | 65 | 1015.6 |
| 20260504234121 | 61 | 303 | 0.0 | 1.7 | 0.00 | 0.00 | 0.00 | 65 | 1015.6 |
| 20260504234021 | 60 | 298 | 0.0 | 1.7 | 0.00 | 0.00 | 0.00 | 66 | 1015.6 |
| 20260504233922 | 61 | 294 | 0.0 | 1.7 | 0.00 | 0.00 | 0.00 | 67 | 1015.4 |
| 20260504233822 | 61 | 290 | 1.7 | 1.7 | 0.00 | 0.00 | 0.00 | 68 | 1015.8 |
| 20260504233722 | 61 | 287 | 1.7 | 1.7 | 0.00 | 0.00 | 0.00 | 68 | 1015.7 |
| 20260504233623 | 60 | 284 | 1.7 | 1.7 | 0.00 | 0.00 | 0.00 | 68 | 1015.7 |
| 20260504233523 | 60 | 286 | 1.7 | 3.5 | 0.00 | 0.00 | 0.00 | 68 | 1015.8 |
| 20260504233423 | 60 | 289 | 0.0 | 3.5 | 0.00 | 0.00 | 0.00 | 68 | 1015.6 |
| 20260504233322 | 60 | 293 | 0.0 | 3.5 | 0.00 | 0.00 | 0.00 | 68 | 1015.7 |
| 20260504233222 | 60 | 296 | 0.0 | 3.5 | 0.00 | 0.00 | 0.00 | 68 | 1015.6 |
| 20260504233121 | 60 | 301 | 0.9 | 3.5 | 0.00 | 0.00 | 0.00 | 68 | 1015.5 |
| 20260504233022 | 61 | 306 | 0.9 | 3.5 | 0.00 | 0.00 | 0.00 | 68 | 1015.6 |
| 20260504232922 | 61 | 311 | 0.0 | 3.5 | 0.00 | 0.00 | 0.00 | 68 | 1015.6 |
| 20260504232822 | 61 | 314 | 0.0 | 3.5 | 0.00 | 0.00 | 0.00 | 68 | 1015.7 |
| 20260504232722 | 61 | 317 | 0.0 | 3.5 | 0.00 | 0.00 | 0.00 | 68 | 1015.5 |
| 20260504232622 | 61 | 321 | 1.7 | 3.5 | 0.00 | 0.00 | 0.00 | 68 | 1015.6 |
| 20260504232522 | 61 | 323 | 1.7 | 3.5 | 0.00 | 0.00 | 0.00 | 68 | 1015.8 |
| 20260504232422 | 61 | 325 | 1.7 | 3.5 | 0.00 | 0.00 | 0.00 | 68 | 1015.9 |
| 20260504232321 | 61 | 327 | 1.7 | 1.7 | 0.00 | 0.00 | 0.00 | 68 | 1015.7 |
| 20260504232222 | 61 | 329 | 1.7 | 1.7 | 0.00 | 0.00 | 0.00 | 68 | 1015.6 |
| 20260504232122 | 61 | 332 | 1.7 | 1.7 | 0.00 | 0.00 | 0.00 | 68 | 1015.6 |
| 20260504232021 | 61 | 335 | 1.7 | 1.7 | 0.00 | 0.00 | 0.00 | 68 | 1015.6 |
| 20260504231921 | 61 | 346 | 1.7 | 1.7 | 0.00 | 0.00 | 0.00 | 68 | 1015.7 |
| 20260504231822 | 60 | 6 | 0.9 | 1.7 | 0.00 | 0.00 | 0.00 | 68 | 1015.7 |
| 20260504231722 | 60 | 23 | 0.9 | 1.7 | 0.00 | 0.00 | 0.00 | 68 | 1015.6 |
| 20260504231622 | 60 | 40 | 0.9 | 1.7 | 0.00 | 0.00 | 0.00 | 68 | 1015.6 |
| 20260504231522 | 60 | 71 | 0.9 | 1.7 | 0.00 | 0.00 | 0.00 | 68 | 1015.6 |
| 20260504231421 | 60 | 95 | 0.0 | 1.7 | 0.00 | 0.00 | 0.00 | 68 | 1015.6 |
| 20260504231322 | 60 | 95 | 0.0 | 1.7 | 0.00 | 0.00 | 0.00 | 68 | 1015.8 |
| 20260504231222 | 61 | 95 | 0.0 | 1.7 | 0.00 | 0.00 | 0.00 | 68 | 1015.6 |
| 20260504231121 | 61 | 95 | 0.0 | 1.7 | 0.00 | 0.00 | 0.00 | 68 | 1015.6 |
| 20260504231022 | 61 | 95 | 0.0 | 1.7 | 0.00 | 0.00 | 0.00 | 67 | 1015.7 |
| 20260504230922 | 61 | 84 | 0.0 | 1.7 | 0.00 | 0.00 | 0.00 | 67 | 1015.8 |
| 20260504230822 | 61 | 67 | 0.0 | 1.7 | 0.00 | 0.00 | 0.00 | 66 | 1015.8 |
| 20260504230721 | 62 | 0 | 0.0 | 0.0 | 0.00 | 0.00 | 0.00 | 66 | 1015.4 |
| 20260504230622 | 62 | 0 | 0.0 | 0.0 | 0.00 | 0.00 | 0.00 | 66 | 1015.7 |
| 20260504230522 | 62 | 0 | 0.0 | 0.0 | 0.00 | 0.00 | 0.00 | 66 | 1015.7 |
| 20260504230422 | 62 | 67 | 0.0 | 1.7 | 0.00 | 0.00 | 0.00 | 66 | 1015.7 |
| 20260504230322 | 62 | 67 | 0.0 | 1.7 | 0.00 | 0.00 | 0.00 | 66 | 1015.9 |
| 20260504230221 | 62 | 67 | 0.0 | 1.7 | 0.00 | 0.00 | 0.00 | 66 | 1015.9 |
| 20260504230122 | 62 | 67 | 0.0 | 1.7 | 0.00 | 0.00 | 0.00 | 66 | 1015.7 |
| 20260504230022 | 62 | 67 | 0.0 | 1.7 | 0.00 | 0.00 | 0.00 | 66 | 1015.8 |
| 20260504225922 | 62 | 67 | 0.0 | 1.7 | 0.00 | 0.00 | 0.00 | 66 | 1016.0 |
| 20260504225822 | 62 | 67 | 0.0 | 1.7 | 0.00 | 0.00 | 0.00 | 66 | 1016.0 |
| 20260504225722 | 62 | 67 | 0.0 | 1.7 | 0.00 | 0.00 | 0.00 | 67 | 1015.7 |
| 20260504225621 | 62 | 62 | 0.0 | 1.7 | 0.00 | 0.00 | 0.00 | 67 | 1015.8 |
| 20260504225521 | 62 | 58 | 0.0 | 1.7 | 0.00 | 0.00 | 0.00 | 67 | 1015.9 |
| 20260504225422 | 62 | 54 | 0.0 | 1.7 | 0.00 | 0.00 | 0.00 | 67 | 1016.0 |
| 20260504225322 | 61 | 50 | 0.0 | 1.7 | 0.00 | 0.00 | 0.00 | 67 | 1015.8 |
| 20260504225223 | 61 | 47 | 0.0 | 1.7 | 0.00 | 0.00 | 0.00 | 67 | 1016.0 |
| 20260504225122 | 62 | 44 | 0.0 | 1.7 | 0.00 | 0.00 | 0.00 | 66 | 1015.7 |
| 20260504225021 | 62 | 44 | 0.0 | 1.7 | 0.00 | 0.00 | 0.00 | 66 | 1016.0 |
| 20260504224922 | 62 | 43 | 0.0 | 1.7 | 0.00 | 0.00 | 0.00 | 66 | 1015.8 |
| 20260504224821 | 62 | 40 | 0.0 | 1.7 | 0.00 | 0.00 | 0.00 | 66 | 1016.0 |
| 20260504224721 | 62 | 37 | 0.0 | 1.7 | 0.00 | 0.00 | 0.00 | 66 | 1016.0 |
| 20260504224622 | 62 | 28 | 0.9 | 1.7 | 0.00 | 0.00 | 0.00 | 66 | 1015.9 |
| 20260504224522 | 62 | 23 | 0.9 | 1.7 | 0.00 | 0.00 | 0.00 | 66 | 1015.8 |
| 20260504224422 | 62 | 18 | 1.7 | 1.7 | 0.00 | 0.00 | 0.00 | 66 | 1015.9 |
| 20260504224322 | 62 | 12 | 1.7 | 1.7 | 0.00 | 0.00 | 0.00 | 66 | 1015.7 |
| 20260504224222 | 62 | 350 | 0.9 | 1.7 | 0.00 | 0.00 | 0.00 | 67 | 1016.0 |
| 20260504224122 | 62 | 322 | 1.7 | 1.7 | 0.00 | 0.00 | 0.00 | 67 | 1016.0 |
| 20260504224022 | 62 | 296 | 0.9 | 1.7 | 0.00 | 0.00 | 0.00 | 67 | 1016.0 |
| 20260504223923 | 62 | 292 | 0.0 | 1.7 | 0.00 | 0.00 | 0.00 | 67 | 1015.8 |
| 20260504223821 | 62 | 292 | 0.0 | 1.7 | 0.00 | 0.00 | 0.00 | 67 | 1015.8 |
| 20260504223722 | 61 | 292 | 0.0 | 1.7 | 0.00 | 0.00 | 0.00 | 68 | 1015.9 |
| 20260504223622 | 61 | 292 | 0.0 | 1.7 | 0.00 | 0.00 | 0.00 | 68 | 1015.9 |
| 20260504223522 | 61 | 292 | 0.0 | 1.7 | 0.00 | 0.00 | 0.00 | 68 | 1016.0 |
| 20260504223422 | 61 | 292 | 0.0 | 1.7 | 0.00 | 0.00 | 0.00 | 68 | 1016.0 |
| 20260504223321 | 61 | 292 | 0.9 | 1.7 | 0.00 | 0.00 | 0.00 | 69 | 1016.0 |
| 20260504223222 | 61 | 292 | 0.9 | 1.7 | 0.00 | 0.00 | 0.00 | 69 | 1015.9 |
| 20260504223122 | 60 | 292 | 0.9 | 1.7 | 0.00 | 0.00 | 0.00 | 69 | 1015.8 |
| 20260504223022 | 60 | 292 | 0.9 | 1.7 | 0.00 | 0.00 | 0.00 | 69 | 1016.0 |
| 20260504222921 | 60 | 292 | 0.0 | 1.7 | 0.00 | 0.00 | 0.00 | 69 | 1015.8 |
| 20260504222822 | 60 | 282 | 0.0 | 1.7 | 0.00 | 0.00 | 0.00 | 69 | 1016.2 |
| 20260504222721 | 60 | 276 | 0.0 | 1.7 | 0.00 | 0.00 | 0.00 | 69 | 1016.0 |
| 20260504222622 | 60 | 271 | 0.0 | 1.7 | 0.00 | 0.00 | 0.00 | 69 | 1015.9 |
| 20260504222522 | 60 | 264 | 0.0 | 1.7 | 0.00 | 0.00 | 0.00 | 69 | 1015.8 |
| 20260504222422 | 60 | 258 | 0.0 | 3.5 | 0.00 | 0.00 | 0.00 | 69 | 1016.0 |
| 20260504222321 | 60 | 257 | 0.0 | 3.5 | 0.00 | 0.00 | 0.00 | 69 | 1015.9 |
| 20260504222221 | 60 | 255 | 0.0 | 3.5 | 0.00 | 0.00 | 0.00 | 68 | 1016.0 |
| 20260504222122 | 60 | 254 | 0.0 | 3.5 | 0.00 | 0.00 | 0.00 | 68 | 1016.0 |
| 20260504222022 | 60 | 253 | 0.0 | 3.5 | 0.00 | 0.00 | 0.00 | 68 | 1016.2 |
| 20260504221921 | 61 | 252 | 0.0 | 3.5 | 0.00 | 0.00 | 0.00 | 68 | 1016.0 |
| 20260504221822 | 61 | 255 | 0.9 | 3.5 | 0.00 | 0.00 | 0.00 | 68 | 1016.1 |
| 20260504221721 | 61 | 258 | 0.0 | 3.5 | 0.00 | 0.00 | 0.00 | 68 | 1016.2 |
| 20260504221622 | 61 | 263 | 0.9 | 3.5 | 0.00 | 0.00 | 0.00 | 68 | 1016.2 |
| 20260504221522 | 61 | 271 | 1.7 | 3.5 | 0.00 | 0.00 | 0.00 | 68 | 1016.0 |
| 20260504221422 | 61 | 284 | 1.7 | 1.7 | 0.00 | 0.00 | 0.00 | 68 | 1016.1 |
| 20260504221322 | 61 | 294 | 1.7 | 1.7 | 0.00 | 0.00 | 0.00 | 67 | 1016.0 |
| 20260504221221 | 61 | 303 | 1.7 | 1.7 | 0.00 | 0.00 | 0.00 | 67 | 1016.0 |
| 20260504221123 | 61 | 311 | 1.7 | 1.7 | 0.00 | 0.00 | 0.00 | 67 | 1016.1 |
| 20260504221021 | 62 | 319 | 0.9 | 1.7 | 0.00 | 0.00 | 0.00 | 66 | 1016.2 |
| 20260504220921 | 62 | 324 | 0.0 | 1.7 | 0.00 | 0.00 | 0.00 | 66 | 1016.1 |
| 20260504220821 | 62 | 325 | 0.0 | 1.7 | 0.00 | 0.00 | 0.00 | 66 | 1015.9 |
| 20260504220722 | 62 | 325 | 0.0 | 1.7 | 0.00 | 0.00 | 0.00 | 66 | 1016.1 |
| 20260504220622 | 62 | 322 | 0.0 | 1.7 | 0.00 | 0.00 | 0.00 | 67 | 1015.8 |
| 20260504220521 | 62 | 318 | 0.9 | 1.7 | 0.00 | 0.00 | 0.00 | 67 | 1015.9 |
| 20260504220421 | 62 | 315 | 0.0 | 1.7 | 0.00 | 0.00 | 0.00 | 67 | 1015.9 |
| 20260504220321 | 62 | 315 | 0.0 | 1.7 | 0.00 | 0.00 | 0.00 | 68 | 1016.1 |
| 20260504220222 | 61 | 305 | 0.0 | 1.7 | 0.00 | 0.00 | 0.00 | 68 | 1016.0 |
| 20260504220121 | 61 | 292 | 0.0 | 1.7 | 0.00 | 0.00 | 0.00 | 68 | 1016.1 |
| 20260504220022 | 61 | 292 | 0.0 | 1.7 | 0.00 | 0.00 | 0.00 | 69 | 1016.0 |
| 20260504215921 | 61 | 292 | 0.0 | 1.7 | 0.00 | 0.00 | 0.00 | 69 | 1015.9 |
| 20260504215822 | 60 | 292 | 0.0 | 1.7 | 0.00 | 0.00 | 0.00 | 69 | 1016.0 |
| 20260504215722 | 60 | 292 | 0.0 | 1.7 | 0.00 | 0.00 | 0.00 | 69 | 1015.9 |
| 20260504215622 | 60 | 292 | 0.0 | 1.7 | 0.00 | 0.00 | 0.00 | 69 | 1016.2 |
| 20260504215522 | 60 | 292 | 0.0 | 1.7 | 0.00 | 0.00 | 0.00 | 69 | 1015.9 |
| 20260504215422 | 60 | 292 | 0.0 | 1.7 | 0.00 | 0.00 | 0.00 | 69 | 1016.1 |
| 20260504215321 | 60 | 292 | 0.0 | 1.7 | 0.00 | 0.00 | 0.00 | 69 | 1016.2 |
| 20260504215222 | 60 | 292 | 0.0 | 1.7 | 0.00 | 0.00 | 0.00 | 69 | 1016.2 |
| 20260504215121 | 60 | 292 | 1.7 | 1.7 | 0.00 | 0.00 | 0.00 | 68 | 1015.9 |
| 20260504215021 | 61 | 292 | 1.7 | 1.7 | 0.00 | 0.00 | 0.00 | 68 | 1016.1 |
| 20260504214921 | 61 | 292 | 0.0 | 1.7 | 0.00 | 0.00 | 0.00 | 68 | 1016.1 |
| 20260504214822 | 61 | 314 | 0.0 | 1.7 | 0.00 | 0.00 | 0.00 | 67 | 1015.9 |
| 20260504214721 | 61 | 324 | 0.0 | 1.7 | 0.00 | 0.00 | 0.00 | 67 | 1016.2 |
| 20260504214621 | 61 | 327 | 0.0 | 1.7 | 0.00 | 0.00 | 0.00 | 66 | 1016.3 |
| 20260504214521 | 62 | 330 | 0.0 | 1.7 | 0.00 | 0.00 | 0.00 | 66 | 1016.2 |
| 20260504214422 | 62 | 336 | 0.0 | 1.7 | 0.00 | 0.00 | 0.00 | 66 | 1016.3 |
| 20260504214321 | 62 | 335 | 0.0 | 1.7 | 0.00 | 0.00 | 0.00 | 65 | 1016.1 |
| 20260504214221 | 63 | 332 | 0.0 | 1.7 | 0.00 | 0.00 | 0.00 | 65 | 1016.0 |
| 20260504214121 | 63 | 330 | 0.0 | 1.7 | 0.00 | 0.00 | 0.00 | 65 | 1016.2 |
| 20260504214021 | 63 | 325 | 0.0 | 1.7 | 0.00 | 0.00 | 0.00 | 65 | 1016.1 |
| 20260504213921 | 62 | 321 | 0.0 | 1.7 | 0.00 | 0.00 | 0.00 | 65 | 1016.1 |
| 20260504213821 | 62 | 318 | 0.0 | 1.7 | 0.00 | 0.00 | 0.00 | 65 | 1015.9 |
| 20260504213722 | 62 | 315 | 0.9 | 1.7 | 0.00 | 0.00 | 0.00 | 66 | 1016.0 |
| 20260504213621 | 62 | 311 | 1.7 | 1.7 | 0.00 | 0.00 | 0.00 | 66 | 1016.0 |
| 20260504213522 | 62 | 307 | 1.7 | 1.7 | 0.00 | 0.00 | 0.00 | 66 | 1015.9 |
| 20260504213421 | 62 | 304 | 1.7 | 1.7 | 0.00 | 0.00 | 0.00 | 66 | 1016.1 |
| 20260504213322 | 62 | 299 | 1.7 | 1.7 | 0.00 | 0.00 | 0.00 | 66 | 1015.9 |
| 20260504213222 | 62 | 296 | 1.7 | 1.7 | 0.00 | 0.00 | 0.00 | 67 | 1016.1 |
| 20260504213121 | 62 | 292 | 1.7 | 1.7 | 0.00 | 0.00 | 0.00 | 67 | 1016.0 |
| 20260504213022 | 62 | 292 | 1.7 | 1.7 | 0.00 | 0.00 | 0.00 | 67 | 1016.0 |
| 20260504212922 | 62 | 292 | 0.9 | 1.7 | 0.00 | 0.00 | 0.00 | 67 | 1016.1 |
| 20260504212821 | 62 | 292 | 0.9 | 1.7 | 0.00 | 0.00 | 0.00 | 67 | 1016.1 |
| 20260504212721 | 62 | 292 | 0.9 | 1.7 | 0.00 | 0.00 | 0.00 | 67 | 1015.9 |
| 20260504212621 | 62 | 292 | 0.0 | 1.7 | 0.00 | 0.00 | 0.00 | 67 | 1016.0 |
| 20260504212521 | 62 | 292 | 0.0 | 1.7 | 0.00 | 0.00 | 0.00 | 67 | 1016.0 |
| 20260504212421 | 62 | 292 | 0.0 | 1.7 | 0.00 | 0.00 | 0.00 | 67 | 1015.9 |
| 20260504212321 | 62 | 292 | 0.0 | 1.7 | 0.00 | 0.00 | 0.00 | 67 | 1016.1 |
| 20260504212221 | 62 | 292 | 0.9 | 1.7 | 0.00 | 0.00 | 0.00 | 67 | 1016.1 |
| 20260504212121 | 62 | 292 | 1.7 | 1.7 | 0.00 | 0.00 | 0.00 | 67 | 1016.1 |
| 20260504212021 | 62 | 292 | 0.9 | 1.7 | 0.00 | 0.00 | 0.00 | 67 | 1016.1 |
| 20260504211921 | 62 | 315 | 0.0 | 1.7 | 0.00 | 0.00 | 0.00 | 67 | 1016.0 |
| 20260504211821 | 62 | 328 | 0.0 | 1.7 | 0.00 | 0.00 | 0.00 | 67 | 1016.1 |
| 20260504211721 | 62 | 332 | 0.0 | 1.7 | 0.00 | 0.00 | 0.00 | 67 | 1016.0 |
| 20260504211622 | 62 | 333 | 0.0 | 1.7 | 0.00 | 0.00 | 0.00 | 67 | 1016.1 |
| 20260504211523 | 62 | 338 | 0.0 | 1.7 | 0.00 | 0.00 | 0.00 | 67 | 1016.2 |
| 20260504211422 | 62 | 338 | 0.0 | 1.7 | 0.00 | 0.00 | 0.00 | 67 | 1015.9 |
| 20260504211322 | 62 | 341 | 0.0 | 1.7 | 0.00 | 0.00 | 0.00 | 67 | 1016.1 |
| 20260504211221 | 62 | 343 | 0.0 | 1.7 | 0.00 | 0.00 | 0.00 | 67 | 1016.1 |
| 20260504211121 | 62 | 346 | 0.0 | 1.7 | 0.00 | 0.00 | 0.00 | 67 | 1016.2 |
| 20260504211021 | 62 | 347 | 0.0 | 1.7 | 0.00 | 0.00 | 0.00 | 67 | 1016.2 |
| 20260504210921 | 62 | 350 | 1.7 | 1.7 | 0.00 | 0.00 | 0.00 | 67 | 1016.1 |
| 20260504210821 | 62 | 351 | 0.9 | 1.7 | 0.00 | 0.00 | 0.00 | 67 | 1016.1 |
| 20260504210721 | 61 | 353 | 1.7 | 1.7 | 0.00 | 0.00 | 0.00 | 67 | 1016.1 |
| 20260504210622 | 61 | 356 | 1.7 | 1.7 | 0.00 | 0.00 | 0.00 | 67 | 1016.2 |
| 20260504210521 | 61 | 350 | 1.7 | 1.7 | 0.00 | 0.00 | 0.00 | 67 | 1016.1 |
| 20260504210421 | 61 | 345 | 1.7 | 1.7 | 0.00 | 0.00 | 0.00 | 67 | 1016.3 |
| 20260504210321 | 61 | 333 | 1.7 | 1.7 | 0.00 | 0.00 | 0.00 | 67 | 1016.1 |
| 20260504210222 | 61 | 318 | 1.7 | 1.7 | 0.00 | 0.00 | 0.00 | 67 | 1016.4 |
| 20260504210121 | 61 | 302 | 1.7 | 1.7 | 0.00 | 0.00 | 0.00 | 67 | 1016.2 |
| 20260504210021 | 62 | 299 | 0.0 | 1.7 | 0.00 | 0.00 | 0.00 | 67 | 1016.2 |
| 20260504205921 | 62 | 302 | 0.0 | 1.7 | 0.00 | 0.00 | 0.00 | 67 | 1016.1 |
| 20260504205822 | 62 | 304 | 0.0 | 1.7 | 0.00 | 0.00 | 0.00 | 67 | 1016.1 |
| 20260504205721 | 62 | 304 | 0.0 | 1.7 | 0.00 | 0.00 | 0.00 | 67 | 1016.3 |
| 20260504205621 | 62 | 304 | 0.0 | 1.7 | 0.00 | 0.00 | 0.00 | 67 | 1016.2 |
| 20260504205521 | 61 | 305 | 0.0 | 1.7 | 0.00 | 0.00 | 0.00 | 67 | 1016.3 |
| 20260504205421 | 61 | 307 | 0.0 | 1.7 | 0.00 | 0.00 | 0.00 | 67 | 1016.3 |
| 20260504205321 | 61 | 309 | 0.9 | 1.7 | 0.00 | 0.00 | 0.00 | 67 | 1016.3 |
| 20260504205221 | 61 | 310 | 1.7 | 1.7 | 0.00 | 0.00 | 0.00 | 67 | 1016.2 |
| 20260504205121 | 61 | 314 | 1.7 | 1.7 | 0.00 | 0.00 | 0.00 | 68 | 1016.3 |
| 20260504205023 | 61 | 315 | 1.7 | 1.7 | 0.00 | 0.00 | 0.00 | 68 | 1016.4 |
| 20260504204922 | 61 | 315 | 0.9 | 1.7 | 0.00 | 0.00 | 0.00 | 68 | 1016.3 |
| 20260504204821 | 61 | 315 | 0.0 | 1.7 | 0.00 | 0.00 | 0.00 | 68 | 1016.3 |
| 20260504204723 | 61 | 0 | 0.0 | 0.0 | 0.00 | 0.00 | 0.00 | 68 | 1016.2 |
| 20260504204622 | 61 | 0 | 0.0 | 0.0 | 0.00 | 0.00 | 0.00 | 67 | 1016.2 |
| 20260504204522 | 61 | 0 | 0.0 | 0.0 | 0.00 | 0.00 | 0.00 | 67 | 1016.2 |
| 20260504204421 | 61 | 0 | 0.0 | 0.0 | 0.00 | 0.00 | 0.00 | 67 | 1016.2 |
| 20260504204321 | 61 | 337 | 0.0 | 1.7 | 0.00 | 0.00 | 0.00 | 67 | 1016.3 |
| 20260504204222 | 61 | 337 | 0.0 | 1.7 | 0.00 | 0.00 | 0.00 | 67 | 1016.2 |
| 20260504204122 | 61 | 337 | 0.0 | 1.7 | 0.00 | 0.00 | 0.00 | 67 | 1016.4 |
| 20260504204021 | 61 | 337 | 0.0 | 1.7 | 0.00 | 0.00 | 0.00 | 67 | 1016.3 |
| 20260504203921 | 61 | 337 | 0.0 | 1.7 | 0.00 | 0.00 | 0.00 | 67 | 1016.5 |
| 20260504203821 | 61 | 337 | 0.0 | 1.7 | 0.00 | 0.00 | 0.00 | 67 | 1016.5 |
| 20260504203721 | 61 | 337 | 0.0 | 1.7 | 0.00 | 0.00 | 0.00 | 67 | 1016.5 |
| 20260504203621 | 61 | 337 | 0.0 | 1.7 | 0.00 | 0.00 | 0.00 | 67 | 1016.2 |
| 20260504203521 | 61 | 339 | 0.0 | 1.7 | 0.00 | 0.00 | 0.00 | 67 | 1016.4 |
| 20260504203421 | 61 | 343 | 0.0 | 1.7 | 0.00 | 0.00 | 0.00 | 67 | 1016.4 |
| 20260504203321 | 61 | 348 | 0.0 | 1.7 | 0.00 | 0.00 | 0.00 | 67 | 1016.5 |
| 20260504203221 | 61 | 353 | 0.0 | 1.7 | 0.00 | 0.00 | 0.00 | 67 | 1016.5 |
| 20260504203121 | 61 | 358 | 0.0 | 1.7 | 0.00 | 0.00 | 0.00 | 67 | 1016.4 |
| 20260504203021 | 61 | 360 | 0.0 | 1.7 | 0.00 | 0.00 | 0.00 | 67 | 1016.5 |
| 20260504202921 | 61 | 358 | 0.0 | 1.7 | 0.00 | 0.00 | 0.00 | 67 | 1016.3 |
| 20260504202821 | 61 | 351 | 0.0 | 1.7 | 0.00 | 0.00 | 0.00 | 67 | 1016.5 |
| 20260504202721 | 61 | 348 | 0.0 | 1.7 | 0.00 | 0.00 | 0.00 | 67 | 1016.5 |
| 20260504202621 | 61 | 346 | 0.0 | 1.7 | 0.00 | 0.00 | 0.00 | 67 | 1016.5 |
| 20260504202521 | 61 | 343 | 0.9 | 1.7 | 0.00 | 0.00 | 0.00 | 67 | 1016.5 |
| 20260504202422 | 61 | 339 | 0.9 | 1.7 | 0.00 | 0.00 | 0.00 | 67 | 1016.4 |
| 20260504202321 | 61 | 334 | 1.7 | 1.7 | 0.00 | 0.00 | 0.00 | 67 | 1016.5 |
| 20260504202221 | 61 | 331 | 1.7 | 1.7 | 0.00 | 0.00 | 0.00 | 67 | 1016.5 |
| 20260504202121 | 61 | 326 | 1.7 | 1.7 | 0.00 | 0.00 | 0.00 | 67 | 1016.4 |
| 20260504202021 | 61 | 321 | 1.7 | 1.7 | 0.00 | 0.00 | 0.00 | 67 | 1016.4 |
| 20260504201921 | 61 | 316 | 0.9 | 1.7 | 0.00 | 0.00 | 0.00 | 66 | 1016.3 |
| 20260504201822 | 61 | 311 | 1.7 | 1.7 | 0.00 | 0.00 | 0.00 | 67 | 1016.3 |
| 20260504201721 | 61 | 307 | 1.7 | 1.7 | 0.00 | 0.00 | 0.00 | 67 | 1016.4 |
| 20260504201621 | 61 | 303 | 0.9 | 1.7 | 0.00 | 0.00 | 0.00 | 67 | 1016.5 |
| 20260504201522 | 61 | 300 | 0.9 | 1.7 | 0.00 | 0.00 | 0.00 | 66 | 1016.4 |
| 20260504201422 | 61 | 294 | 0.0 | 1.7 | 0.00 | 0.00 | 0.00 | 66 | 1016.5 |
| 20260504201322 | 61 | 289 | 0.0 | 1.7 | 0.00 | 0.00 | 0.00 | 66 | 1016.3 |
| 20260504201222 | 61 | 287 | 0.0 | 1.7 | 0.00 | 0.00 | 0.00 | 66 | 1016.4 |
| 20260504201121 | 62 | 288 | 0.0 | 1.7 | 0.00 | 0.00 | 0.00 | 66 | 1016.4 |
| 20260504201021 | 62 | 286 | 0.0 | 1.7 | 0.00 | 0.00 | 0.00 | 65 | 1016.4 |
| 20260504200921 | 62 | 285 | 0.9 | 1.7 | 0.00 | 0.00 | 0.00 | 65 | 1016.5 |
| 20260504200821 | 62 | 286 | 0.0 | 1.7 | 0.00 | 0.00 | 0.00 | 65 | 1016.5 |
| 20260504200721 | 62 | 284 | 0.0 | 1.7 | 0.00 | 0.00 | 0.00 | 65 | 1016.3 |
| 20260504200621 | 62 | 278 | 0.0 | 1.7 | 0.00 | 0.00 | 0.00 | 65 | 1016.3 |
| 20260504200521 | 62 | 270 | 0.9 | 1.7 | 0.00 | 0.00 | 0.00 | 66 | 1016.5 |
| 20260504200421 | 62 | 246 | 0.9 | 1.7 | 0.00 | 0.00 | 0.00 | 66 | 1016.2 |
| 20260504200321 | 62 | 206 | 0.9 | 1.7 | 0.00 | 0.00 | 0.00 | 66 | 1016.5 |
| 20260504200221 | 62 | 169 | 0.9 | 1.7 | 0.00 | 0.00 | 0.00 | 66 | 1016.1 |
| 20260504200121 | 62 | 151 | 1.7 | 1.7 | 0.00 | 0.00 | 0.00 | 66 | 1016.2 |
| 20260504200021 | 62 | 142 | 1.7 | 1.7 | 0.00 | 0.00 | 0.00 | 66 | 1016.4 |
| 20260504195921 | 62 | 136 | 0.9 | 1.7 | 0.00 | 0.00 | 0.00 | 66 | 1016.2 |
| 20260504195822 | 62 | 135 | 0.0 | 1.7 | 0.00 | 0.00 | 0.00 | 66 | 1016.1 |
| 20260504195721 | 61 | 135 | 0.0 | 1.7 | 0.00 | 0.00 | 0.00 | 66 | 1016.1 |
| 20260504195621 | 61 | 135 | 0.0 | 1.7 | 0.00 | 0.00 | 0.00 | 67 | 1016.4 |
| 20260504195521 | 61 | 135 | 0.9 | 1.7 | 0.00 | 0.00 | 0.00 | 67 | 1016.3 |
| 20260504195421 | 61 | 135 | 1.7 | 1.7 | 0.00 | 0.00 | 0.00 | 66 | 1016.1 |
| 20260504195321 | 61 | 135 | 1.7 | 1.7 | 0.00 | 0.00 | 0.00 | 66 | 1016.2 |
| 20260504195221 | 62 | 135 | 1.7 | 1.7 | 0.00 | 0.00 | 0.00 | 66 | 1016.4 |
| 20260504195121 | 62 | 135 | 1.7 | 1.7 | 0.00 | 0.00 | 0.00 | 66 | 1016.3 |
| 20260504195021 | 62 | 135 | 1.7 | 1.7 | 0.00 | 0.00 | 0.00 | 66 | 1016.1 |
| 20260504194921 | 62 | 135 | 1.7 | 1.7 | 0.00 | 0.00 | 0.00 | 66 | 1016.2 |
| 20260504194821 | 62 | 135 | 0.9 | 1.7 | 0.00 | 0.00 | 0.00 | 66 | 1016.2 |
| 20260504194721 | 62 | 135 | 0.0 | 1.7 | 0.00 | 0.00 | 0.00 | 66 | 1016.3 |
| 20260504194621 | 62 | 135 | 0.0 | 1.7 | 0.00 | 0.00 | 0.00 | 66 | 1016.0 |
| 20260504194521 | 62 | 135 | 0.0 | 1.7 | 0.00 | 0.00 | 0.00 | 66 | 1016.2 |
| 20260504194421 | 62 | 135 | 0.0 | 1.7 | 0.00 | 0.00 | 0.00 | 66 | 1016.2 |
| 20260504194321 | 62 | 135 | 0.0 | 1.7 | 0.00 | 0.00 | 0.00 | 66 | 1016.3 |
| 20260504194221 | 62 | 135 | 0.9 | 1.7 | 0.00 | 0.00 | 0.00 | 67 | 1016.2 |
| 20260504194121 | 62 | 135 | 0.9 | 1.7 | 0.00 | 0.00 | 0.00 | 67 | 1016.4 |
| 20260504194022 | 62 | 135 | 0.9 | 1.7 | 0.00 | 0.00 | 0.00 | 67 | 1016.3 |
| 20260504193921 | 62 | 135 | 0.9 | 1.7 | 0.00 | 0.00 | 0.00 | 67 | 1015.8 |
| 20260504193821 | 62 | 135 | 0.9 | 1.7 | 0.00 | 0.00 | 0.00 | 67 | 1015.8 |
| 20260504193721 | 62 | 135 | 0.0 | 1.7 | 0.00 | 0.00 | 0.00 | 67 | 1016.2 |
| 20260504193621 | 62 | 135 | 0.0 | 1.7 | 0.00 | 0.00 | 0.00 | 67 | 1016.3 |
| 20260504193521 | 62 | 134 | 0.0 | 1.7 | 0.00 | 0.00 | 0.00 | 66 | 1016.1 |
| 20260504193421 | 62 | 132 | 0.9 | 1.7 | 0.00 | 0.00 | 0.00 | 66 | 1016.3 |
| 20260504193321 | 62 | 129 | 0.0 | 1.7 | 0.00 | 0.00 | 0.00 | 66 | 1016.1 |
| 20260504193221 | 62 | 128 | 0.9 | 1.7 | 0.00 | 0.00 | 0.00 | 66 | 1016.2 |
| 20260504193121 | 62 | 124 | 0.9 | 1.7 | 0.00 | 0.00 | 0.00 | 66 | 1016.1 |
| 20260504193021 | 62 | 117 | 0.9 | 1.7 | 0.00 | 0.00 | 0.00 | 66 | 1016.1 |
| 20260504192921 | 62 | 102 | 0.9 | 1.7 | 0.00 | 0.00 | 0.00 | 65 | 1016.1 |
| 20260504192821 | 62 | 78 | 1.7 | 1.7 | 0.00 | 0.00 | 0.00 | 65 | 1016.2 |
| 20260504192721 | 62 | 27 | 1.7 | 3.5 | 0.00 | 0.00 | 0.00 | 65 | 1016.1 |
| 20260504192621 | 63 | 360 | 1.7 | 3.5 | 0.00 | 0.00 | 0.00 | 64 | 1016.0 |
| 20260504192521 | 63 | 350 | 1.7 | 3.5 | 0.00 | 0.00 | 0.00 | 63 | 1016.1 |
| 20260504192421 | 63 | 343 | 1.7 | 3.5 | 0.00 | 0.00 | 0.00 | 62 | 1016.1 |
| 20260504192321 | 64 | 338 | 1.7 | 3.5 | 0.00 | 0.00 | 0.00 | 62 | 1016.0 |
| 20260504192221 | 64 | 336 | 0.0 | 3.5 | 0.00 | 0.00 | 0.00 | 61 | 1016.2 |
| 20260504192121 | 64 | 335 | 0.0 | 3.5 | 0.00 | 0.00 | 0.00 | 61 | 1016.2 |
| 20260504192021 | 64 | 335 | 0.9 | 3.5 | 0.00 | 0.00 | 0.00 | 61 | 1016.0 |
| 20260504191921 | 64 | 335 | 1.7 | 3.5 | 0.00 | 0.00 | 0.00 | 61 | 1016.1 |
| 20260504191821 | 64 | 334 | 1.7 | 3.5 | 0.00 | 0.00 | 0.00 | 61 | 1016.0 |
| 20260504191721 | 64 | 334 | 1.7 | 3.5 | 0.00 | 0.00 | 0.00 | 61 | 1016.1 |
| 20260504191621 | 64 | 334 | 1.7 | 3.5 | 0.00 | 0.00 | 0.00 | 61 | 1016.3 |
| 20260504191521 | 64 | 334 | 1.7 | 3.5 | 0.00 | 0.00 | 0.00 | 61 | 1016.2 |
| 20260504191421 | 64 | 334 | 3.5 | 3.5 | 0.00 | 0.00 | 0.00 | 61 | 1016.0 |
| 20260504191321 | 64 | 334 | 3.5 | 3.5 | 0.00 | 0.00 | 0.00 | 62 | 1016.3 |
| 20260504191221 | 64 | 335 | 2.6 | 3.5 | 0.00 | 0.00 | 0.00 | 62 | 1016.1 |
| 20260504191121 | 64 | 336 | 3.5 | 3.5 | 0.00 | 0.00 | 0.00 | 62 | 1016.2 |
| 20260504191021 | 63 | 336 | 2.6 | 5.2 | 0.00 | 0.00 | 0.00 | 62 | 1016.2 |
| 20260504190921 | 63 | 336 | 2.6 | 5.2 | 0.00 | 0.00 | 0.00 | 63 | 1016.1 |
| 20260504190821 | 63 | 337 | 2.6 | 5.2 | 0.00 | 0.00 | 0.00 | 63 | 1016.2 |
| 20260504190721 | 63 | 337 | 1.7 | 5.2 | 0.00 | 0.00 | 0.00 | 63 | 1015.9 |
| 20260504190621 | 63 | 337 | 2.6 | 5.2 | 0.00 | 0.00 | 0.00 | 63 | 1016.1 |
| 20260504190521 | 63 | 337 | 2.6 | 5.2 | 0.00 | 0.00 | 0.00 | 63 | 1016.0 |
| 20260504190421 | 63 | 337 | 2.6 | 5.2 | 0.00 | 0.00 | 0.00 | 63 | 1016.0 |
| 20260504190321 | 63 | 337 | 2.6 | 5.2 | 0.00 | 0.00 | 0.00 | 64 | 1015.9 |
| 20260504190221 | 63 | 336 | 3.5 | 5.2 | 0.00 | 0.00 | 0.00 | 64 | 1015.9 |
| 20260504190121 | 63 | 334 | 3.5 | 5.2 | 0.00 | 0.00 | 0.00 | 64 | 1016.1 |
| 20260504190021 | 63 | 332 | 3.5 | 5.2 | 0.00 | 0.00 | 0.00 | 64 | 1016.4 |
| 20260504185921 | 63 | 331 | 3.5 | 5.2 | 0.00 | 0.00 | 0.00 | 64 | 1016.1 |
| 20260504185821 | 63 | 330 | 3.5 | 5.2 | 0.00 | 0.00 | 0.00 | 64 | 1015.9 |
| 20260504185721 | 63 | 328 | 3.5 | 5.2 | 0.00 | 0.00 | 0.00 | 65 | 1016.1 |
| 20260504185621 | 63 | 317 | 2.6 | 5.2 | 0.00 | 0.00 | 0.00 | 65 | 1016.0 |
| 20260504185521 | 62 | 290 | 1.7 | 1.7 | 0.00 | 0.00 | 0.00 | 66 | 1016.0 |
| 20260504185421 | 62 | 268 | 1.7 | 1.7 | 0.00 | 0.00 | 0.00 | 66 | 1015.8 |
| 20260504185321 | 62 | 260 | 1.7 | 1.7 | 0.00 | 0.00 | 0.00 | 66 | 1015.8 |
| 20260504185221 | 62 | 245 | 0.9 | 1.7 | 0.00 | 0.00 | 0.00 | 66 | 1015.8 |
| 20260504185121 | 62 | 240 | 0.0 | 1.7 | 0.00 | 0.00 | 0.00 | 66 | 1016.0 |
| 20260504185021 | 62 | 239 | 0.0 | 1.7 | 0.00 | 0.00 | 0.00 | 66 | 1015.9 |
| 20260504184921 | 62 | 239 | 0.0 | 1.7 | 0.00 | 0.00 | 0.00 | 67 | 1015.9 |
| 20260504184821 | 62 | 239 | 0.0 | 1.7 | 0.00 | 0.00 | 0.00 | 66 | 1016.0 |
| 20260504184721 | 62 | 252 | 0.0 | 1.7 | 0.00 | 0.00 | 0.00 | 66 | 1016.2 |
| 20260504184621 | 63 | 285 | 0.9 | 1.7 | 0.00 | 0.00 | 0.00 | 66 | 1016.0 |
| 20260504184521 | 63 | 357 | 0.9 | 1.7 | 0.00 | 0.00 | 0.00 | 66 | 1016.0 |
| 20260504184421 | 63 | 30 | 1.7 | 1.7 | 0.00 | 0.00 | 0.00 | 65 | 1016.2 |
| 20260504184321 | 63 | 46 | 0.9 | 1.7 | 0.00 | 0.00 | 0.00 | 65 | 1016.1 |
| 20260504184221 | 63 | 51 | 0.0 | 1.7 | 0.00 | 0.00 | 0.00 | 65 | 1016.0 |
| 20260504184121 | 63 | 54 | 0.0 | 1.7 | 0.00 | 0.00 | 0.00 | 65 | 1015.8 |
| 20260504184021 | 63 | 55 | 0.0 | 1.7 | 0.00 | 0.00 | 0.00 | 65 | 1016.0 |
| 20260504183921 | 63 | 57 | 0.0 | 1.7 | 0.00 | 0.00 | 0.00 | 65 | 1015.9 |
| 20260504183821 | 63 | 58 | 0.0 | 1.7 | 0.00 | 0.00 | 0.00 | 65 | 1015.8 |
| 20260504183721 | 63 | 62 | 0.9 | 1.7 | 0.00 | 0.00 | 0.00 | 65 | 1015.9 |
| 20260504183621 | 63 | 65 | 0.9 | 1.7 | 0.00 | 0.00 | 0.00 | 65 | 1015.9 |
| 20260504183521 | 63 | 67 | 0.9 | 1.7 | 0.00 | 0.00 | 0.00 | 65 | 1015.9 |
| 20260504183421 | 63 | 68 | 0.0 | 1.7 | 0.00 | 0.00 | 0.00 | 65 | 1016.0 |
| 20260504183321 | 63 | 69 | 0.0 | 1.7 | 0.00 | 0.00 | 0.00 | 65 | 1015.8 |
| 20260504183221 | 63 | 68 | 0.0 | 1.7 | 0.00 | 0.00 | 0.00 | 65 | 1015.8 |
| 20260504183121 | 63 | 68 | 0.9 | 1.7 | 0.00 | 0.00 | 0.00 | 65 | 1015.7 |
| 20260504183022 | 64 | 68 | 0.9 | 1.7 | 0.00 | 0.00 | 0.00 | 64 | 1015.6 |
| 20260504182921 | 64 | 66 | 1.7 | 1.7 | 0.00 | 0.00 | 0.00 | 64 | 1016.1 |
| 20260504182821 | 64 | 64 | 1.7 | 1.7 | 0.00 | 0.00 | 0.00 | 64 | 1015.7 |
| 20260504182721 | 64 | 62 | 1.7 | 1.7 | 0.00 | 0.00 | 0.00 | 63 | 1015.8 |
| 20260504182621 | 64 | 59 | 0.9 | 1.7 | 0.00 | 0.00 | 0.00 | 63 | 1015.9 |
| 20260504182521 | 64 | 57 | 0.9 | 1.7 | 0.00 | 0.00 | 0.00 | 63 | 1015.7 |
| 20260504182421 | 64 | 58 | 1.7 | 1.7 | 0.00 | 0.00 | 0.00 | 63 | 1015.8 |
| 20260504182321 | 64 | 57 | 1.7 | 1.7 | 0.00 | 0.00 | 0.00 | 63 | 1015.8 |
| 20260504182221 | 64 | 57 | 0.9 | 1.7 | 0.00 | 0.00 | 0.00 | 63 | 1015.8 |
| 20260504182121 | 64 | 61 | 0.9 | 1.7 | 0.00 | 0.00 | 0.00 | 64 | 1015.9 |
| 20260504182021 | 64 | 65 | 0.0 | 1.7 | 0.00 | 0.00 | 0.00 | 64 | 1016.0 |
| 20260504181921 | 64 | 71 | 0.0 | 1.7 | 0.00 | 0.00 | 0.00 | 64 | 1016.0 |
| 20260504181821 | 64 | 78 | 0.9 | 1.7 | 0.00 | 0.00 | 0.00 | 64 | 1015.8 |
| 20260504181721 | 64 | 84 | 0.9 | 1.7 | 0.00 | 0.00 | 0.00 | 64 | 1015.6 |
| 20260504181621 | 64 | 90 | 0.9 | 1.7 | 0.00 | 0.00 | 0.00 | 64 | 1015.8 |
| 20260504181521 | 64 | 93 | 0.0 | 1.7 | 0.00 | 0.00 | 0.00 | 64 | 1015.7 |
| 20260504181421 | 64 | 94 | 0.0 | 1.7 | 0.00 | 0.00 | 0.00 | 64 | 1015.7 |
| 20260504181322 | 64 | 94 | 0.0 | 1.7 | 0.00 | 0.00 | 0.00 | 64 | 1015.8 |
| 20260504181221 | 64 | 95 | 0.9 | 1.7 | 0.00 | 0.00 | 0.00 | 64 | 1015.7 |
| 20260504181121 | 64 | 97 | 0.9 | 1.7 | 0.00 | 0.00 | 0.00 | 64 | 1015.8 |
| 20260504181021 | 64 | 103 | 0.9 | 1.7 | 0.00 | 0.00 | 0.00 | 64 | 1015.7 |
| 20260504180921 | 64 | 112 | 0.9 | 1.7 | 0.00 | 0.00 | 0.00 | 64 | 1015.8 |
| 20260504180821 | 64 | 112 | 0.0 | 1.7 | 0.00 | 0.00 | 0.00 | 64 | 1015.7 |
| 20260504180721 | 64 | 112 | 0.0 | 1.7 | 0.00 | 0.00 | 0.00 | 64 | 1015.6 |
| 20260504180621 | 64 | 112 | 0.0 | 1.7 | 0.00 | 0.00 | 0.00 | 63 | 1015.8 |
| 20260504180521 | 64 | 112 | 0.0 | 1.7 | 0.00 | 0.00 | 0.00 | 63 | 1015.8 |
| 20260504180421 | 64 | 112 | 0.0 | 1.7 | 0.00 | 0.00 | 0.00 | 64 | 1015.6 |
| 20260504180321 | 64 | 111 | 0.0 | 1.7 | 0.00 | 0.00 | 0.00 | 64 | 1015.5 |
| 20260504180221 | 64 | 108 | 0.0 | 1.7 | 0.00 | 0.00 | 0.00 | 64 | 1015.7 |
| 20260504180121 | 64 | 105 | 0.0 | 1.7 | 0.00 | 0.00 | 0.00 | 64 | 1015.6 |
| 20260504180021 | 64 | 103 | 0.0 | 1.7 | 0.00 | 0.00 | 0.00 | 63 | 1015.8 |
| 20260504175921 | 64 | 103 | 0.0 | 3.5 | 0.00 | 0.00 | 0.00 | 64 | 1015.7 |
| 20260504175821 | 64 | 101 | 0.9 | 3.5 | 0.00 | 0.00 | 0.00 | 63 | 1015.6 |
| 20260504175721 | 64 | 99 | 0.0 | 3.5 | 0.00 | 0.00 | 0.00 | 64 | 1015.7 |
| 20260504175621 | 64 | 97 | 0.9 | 3.5 | 0.00 | 0.00 | 0.00 | 64 | 1015.4 |
| 20260504175521 | 64 | 95 | 0.9 | 3.5 | 0.00 | 0.00 | 0.00 | 64 | 1015.4 |
| 20260504175421 | 64 | 93 | 0.9 | 3.5 | 0.00 | 0.00 | 0.00 | 63 | 1015.5 |
| 20260504175321 | 64 | 92 | 0.9 | 3.5 | 0.00 | 0.00 | 0.00 | 63 | 1015.4 |
| 20260504175221 | 64 | 90 | 1.7 | 3.5 | 0.00 | 0.00 | 0.00 | 63 | 1015.4 |
| 20260504175121 | 64 | 90 | 0.9 | 3.5 | 0.00 | 0.00 | 0.00 | 63 | 1015.5 |
| 20260504175021 | 64 | 90 | 1.7 | 3.5 | 0.00 | 0.00 | 0.00 | 63 | 1015.7 |
| 20260504174921 | 64 | 87 | 1.7 | 3.5 | 0.00 | 0.00 | 0.00 | 63 | 1015.6 |
| 20260504174821 | 64 | 88 | 1.7 | 1.7 | 0.00 | 0.00 | 0.00 | 63 | 1015.5 |
| 20260504174721 | 64 | 88 | 1.7 | 1.7 | 0.00 | 0.00 | 0.00 | 63 | 1015.5 |
| 20260504174621 | 64 | 88 | 1.7 | 1.7 | 0.00 | 0.00 | 0.00 | 63 | 1015.5 |
| 20260504174522 | 64 | 90 | 1.7 | 1.7 | 0.00 | 0.00 | 0.00 | 63 | 1015.6 |
| 20260504174421 | 64 | 91 | 0.9 | 1.7 | 0.00 | 0.00 | 0.00 | 63 | 1015.8 |
| 20260504174321 | 64 | 92 | 1.7 | 1.7 | 0.00 | 0.00 | 0.00 | 63 | 1015.6 |
| 20260504174221 | 64 | 96 | 1.7 | 1.7 | 0.00 | 0.00 | 0.00 | 63 | 1015.7 |
| 20260504174121 | 64 | 99 | 1.7 | 1.7 | 0.00 | 0.00 | 0.00 | 63 | 1015.8 |
| 20260504174021 | 64 | 102 | 0.9 | 1.7 | 0.00 | 0.00 | 0.00 | 63 | 1015.5 |
| 20260504173921 | 64 | 104 | 0.0 | 1.7 | 0.00 | 0.00 | 0.00 | 62 | 1015.6 |
| 20260504173821 | 64 | 103 | 0.9 | 1.7 | 0.00 | 0.00 | 0.00 | 62 | 1015.5 |
| 20260504173721 | 64 | 105 | 1.7 | 1.7 | 0.00 | 0.00 | 0.00 | 62 | 1015.8 |
| 20260504173621 | 64 | 108 | 1.7 | 1.7 | 0.00 | 0.00 | 0.00 | 62 | 1015.6 |
| 20260504173521 | 65 | 109 | 1.7 | 1.7 | 0.00 | 0.00 | 0.00 | 62 | 1015.6 |
| 20260504173421 | 65 | 114 | 1.7 | 1.7 | 0.00 | 0.00 | 0.00 | 62 | 1015.6 |
| 20260504173321 | 65 | 118 | 1.7 | 1.7 | 0.00 | 0.00 | 0.00 | 63 | 1015.6 |
| 20260504173221 | 65 | 120 | 0.9 | 1.7 | 0.00 | 0.00 | 0.00 | 63 | 1015.6 |
| 20260504173121 | 65 | 121 | 0.9 | 1.7 | 0.00 | 0.00 | 0.00 | 62 | 1015.7 |
| 20260504173021 | 65 | 120 | 0.9 | 1.7 | 0.00 | 0.00 | 0.00 | 62 | 1015.7 |
| 20260504172921 | 65 | 120 | 0.0 | 1.7 | 0.00 | 0.00 | 0.00 | 63 | 1015.6 |
| 20260504172821 | 65 | 120 | 0.9 | 1.7 | 0.00 | 0.00 | 0.00 | 62 | 1015.7 |
| 20260504172721 | 65 | 120 | 0.9 | 1.7 | 0.00 | 0.00 | 0.00 | 62 | 1015.7 |
| 20260504172621 | 65 | 118 | 1.7 | 1.7 | 0.00 | 0.00 | 0.00 | 62 | 1015.5 |
| 20260504172521 | 65 | 115 | 0.9 | 1.7 | 0.00 | 0.00 | 0.00 | 62 | 1015.6 |
| 20260504172421 | 65 | 112 | 0.9 | 1.7 | 0.00 | 0.00 | 0.00 | 62 | 1015.7 |
| 20260504172321 | 65 | 109 | 0.9 | 3.5 | 0.00 | 0.00 | 0.00 | 62 | 1015.8 |
| 20260504172221 | 65 | 107 | 0.9 | 3.5 | 0.00 | 0.00 | 0.00 | 62 | 1015.6 |
| 20260504172121 | 65 | 105 | 0.9 | 3.5 | 0.00 | 0.00 | 0.00 | 63 | 1015.8 |
| 20260504172021 | 65 | 104 | 0.9 | 3.5 | 0.00 | 0.00 | 0.00 | 62 | 1015.7 |
| 20260504171921 | 65 | 105 | 0.0 | 3.5 | 0.00 | 0.00 | 0.00 | 63 | 1015.8 |
| 20260504171821 | 65 | 104 | 0.9 | 3.5 | 0.00 | 0.00 | 0.00 | 63 | 1015.7 |
| 20260504171721 | 65 | 104 | 1.7 | 3.5 | 0.00 | 0.00 | 0.00 | 63 | 1015.9 |
| 20260504171621 | 65 | 105 | 1.7 | 3.5 | 0.00 | 0.00 | 0.00 | 63 | 1015.8 |
| 20260504171521 | 65 | 104 | 0.9 | 3.5 | 0.00 | 0.00 | 0.00 | 63 | 1015.7 |
| 20260504171421 | 65 | 103 | 1.7 | 3.5 | 0.00 | 0.00 | 0.00 | 62 | 1015.6 |
| 20260504171321 | 65 | 104 | 1.7 | 3.5 | 0.00 | 0.00 | 0.00 | 62 | 1015.5 |
| 20260504171221 | 65 | 105 | 1.7 | 3.5 | 0.00 | 0.00 | 0.00 | 62 | 1015.9 |
| 20260504171121 | 65 | 106 | 1.7 | 3.5 | 0.00 | 0.00 | 0.00 | 62 | 1015.8 |
| 20260504171021 | 65 | 107 | 1.7 | 3.5 | 0.00 | 0.00 | 0.00 | 62 | 1015.7 |
| 20260504170921 | 65 | 106 | 1.7 | 3.5 | 0.00 | 0.00 | 0.00 | 62 | 1015.5 |
| 20260504170821 | 65 | 107 | 1.7 | 3.5 | 0.00 | 0.00 | 0.00 | 63 | 1015.6 |
| 20260504170721 | 65 | 105 | 1.7 | 3.5 | 0.00 | 0.00 | 0.00 | 63 | 1015.6 |
| 20260504170621 | 66 | 101 | 1.7 | 3.5 | 0.00 | 0.00 | 0.00 | 62 | 1015.9 |
| 20260504170521 | 65 | 101 | 1.7 | 1.7 | 0.00 | 0.00 | 0.00 | 62 | 1015.8 |
| 20260504170421 | 65 | 96 | 1.7 | 1.7 | 0.00 | 0.00 | 0.00 | 61 | 1015.8 |
| 20260504170321 | 65 | 91 | 1.7 | 1.7 | 0.00 | 0.00 | 0.00 | 61 | 1015.6 |
| 20260504160421 | 68 | 96 | 0.9 | 3.5 | 0.00 | 0.00 | 0.00 | 61 | 1015.8 |
| 20260504160321 | 68 | 99 | 1.7 | 3.5 | 0.00 | 0.00 | 0.00 | 61 | 1015.9 |
| 20260504160221 | 68 | 98 | 1.7 | 3.5 | 0.00 | 0.00 | 0.00 | 61 | 1015.8 |
| 20260504160121 | 68 | 99 | 1.7 | 3.5 | 0.00 | 0.00 | 0.00 | 61 | 1015.8 |
| 20260504151121 | 69 | 128 | 1.7 | 5.2 | 0.00 | 0.00 | 0.00 | 58 | 1016.0 |
| 20260504151021 | 69 | 132 | 1.7 | 5.2 | 0.00 | 0.00 | 0.00 | 59 | 1016.1 |
| 20260504150921 | 69 | 136 | 1.7 | 5.2 | 0.00 | 0.00 | 0.00 | 59 | 1015.8 |
| 20260504150821 | 69 | 135 | 1.7 | 5.2 | 0.00 | 0.00 | 0.00 | 59 | 1016.0 |
| 20260504150721 | 69 | 135 | 1.7 | 5.2 | 0.00 | 0.00 | 0.00 | 58 | 1016.0 |
| 20260504150621 | 69 | 137 | 2.6 | 5.2 | 0.00 | 0.00 | 0.00 | 59 | 1016.0 |
| 20260504150521 | 69 | 136 | 1.7 | 5.2 | 0.00 | 0.00 | 0.00 | 59 | 1016.1 |
| 20260504150421 | 69 | 133 | 1.7 | 5.2 | 0.00 | 0.00 | 0.00 | 58 | 1016.0 |
| 20260504150321 | 69 | 130 | 1.7 | 5.2 | 0.00 | 0.00 | 0.00 | 59 | 1016.0 |
| 20260504150221 | 69 | 128 | 2.6 | 5.2 | 0.00 | 0.00 | 0.00 | 59 | 1016.0 |
| 20260504150121 | 69 | 128 | 3.5 | 5.2 | 0.00 | 0.00 | 0.00 | 59 | 1015.9 |
| 20260504141321 | 69 | 120 | 3.5 | 7.0 | 0.00 | 0.00 | 0.00 | 57 | 1016.2 |
| 20260504141221 | 69 | 119 | 3.5 | 7.0 | 0.00 | 0.00 | 0.00 | 56 | 1016.2 |
| 20260504141121 | 70 | 120 | 3.5 | 7.0 | 0.00 | 0.00 | 0.00 | 56 | 1016.3 |
| 20260504141021 | 70 | 119 | 3.5 | 7.0 | 0.00 | 0.00 | 0.00 | 57 | 1016.2 |
| 20260504140921 | 70 | 116 | 2.6 | 7.0 | 0.00 | 0.00 | 0.00 | 57 | 1016.3 |
| 20260504140821 | 70 | 111 | 3.5 | 7.0 | 0.00 | 0.00 | 0.00 | 56 | 1016.2 |
| 20260504140721 | 70 | 106 | 3.5 | 7.0 | 0.00 | 0.00 | 0.00 | 55 | 1016.1 |
| 20260504140621 | 70 | 106 | 3.5 | 7.0 | 0.00 | 0.00 | 0.00 | 56 | 1016.1 |
| 20260504140521 | 70 | 108 | 3.5 | 7.0 | 0.00 | 0.00 | 0.00 | 56 | 1016.1 |
| 20260504140421 | 70 | 108 | 2.6 | 7.0 | 0.00 | 0.00 | 0.00 | 58 | 1016.2 |
| 20260504140321 | 70 | 108 | 3.5 | 6.1 | 0.00 | 0.00 | 0.00 | 57 | 1016.1 |
| 20260504140220 | 70 | 105 | 3.5 | 6.1 | 0.00 | 0.00 | 0.00 | 56 | 1016.2 |
| 20260504140121 | 70 | 102 | 3.5 | 7.0 | 0.00 | 0.00 | 0.00 | 57 | 1016.2 |
| 20260504130820 | 72 | 110 | 2.6 | 7.0 | 0.00 | 0.00 | 0.00 | 58 | 1016.7 |
| 20260504130720 | 71 | 112 | 3.5 | 7.8 | 0.00 | 0.00 | 0.00 | 58 | 1016.6 |
| 20260504130621 | 70 | 111 | 4.3 | 7.8 | 0.00 | 0.00 | 0.00 | 55 | 1016.7 |
| 20260504130520 | 71 | 106 | 2.6 | 7.8 | 0.00 | 0.00 | 0.00 | 55 | 1016.5 |
| 20260504130421 | 71 | 111 | 3.5 | 7.8 | 0.00 | 0.00 | 0.00 | 55 | 1016.9 |
| 20260504130320 | 71 | 116 | 3.5 | 7.8 | 0.00 | 0.00 | 0.00 | 55 | 1016.8 |
| 20260504130221 | 71 | 116 | 3.5 | 7.8 | 0.00 | 0.00 | 0.00 | 57 | 1016.8 |
| 20260504130121 | 71 | 114 | 4.3 | 9.6 | 0.00 | 0.00 | 0.00 | 56 | 1017.0 |
| 20260504120221 | 72 | 103 | 3.5 | 7.0 | 0.00 | 0.00 | 0.00 | 53 | 1017.1 |
| 20260504120121 | 71 | 107 | 3.5 | 7.0 | 0.00 | 0.00 | 0.00 | 50 | 1017.1 |
| 20260504110721 | 70 | 112 | 3.5 | 9.6 | 0.00 | 0.00 | 0.00 | 50 | 1017.2 |
| 20260504110620 | 70 | 114 | 4.3 | 9.6 | 0.00 | 0.00 | 0.00 | 50 | 1017.4 |
| 20260504110521 | 70 | 118 | 3.5 | 9.6 | 0.00 | 0.00 | 0.00 | 49 | 1017.5 |
| 20260504110420 | 70 | 119 | 3.5 | 9.6 | 0.00 | 0.00 | 0.00 | 51 | 1017.2 |
| 20260504110320 | 71 | 126 | 3.5 | 9.6 | 0.00 | 0.00 | 0.00 | 51 | 1017.1 |
| 20260504110221 | 71 | 128 | 3.5 | 9.6 | 0.00 | 0.00 | 0.00 | 48 | 1017.2 |
| 20260504110120 | 71 | 133 | 1.7 | 9.6 | 0.00 | 0.00 | 0.00 | 48 | 1017.2 |